GFSNGP_sfc_temp_000.txt.gz
Temp
44 46 46 45 44 44 44 42 35 40 41 44 45 45 46 47 47 48 47 48 49 47 45 45 45 45 45 44 45 45 44 43 42 41 41 42 43 42 41 40 43 42 41 39
35 44 42 40 44 44 45 46 45 42 40 47 47 46 45 46 45 46 47 47 47 46 46 46 45 43 45 44 44 44 42 42 43 42 42 41 41 40 39 39 40 41 38 36
30 34 34 31 40 45 46 45 45 36 42 45 43 44 42 43 45 45 45 46 45 45 46 45 43 44 43 43 44 43 42 42 42 41 40 39 40 39 38 38 41 38 36 34
25 27 22 43 50 50 44 45 45 43 43 45 44 43 44 45 44 44 46 47 45 46 45 44 43 43 43 43 42 41 40 41 40 40 39 39 38 38 38 40 38 34 31 32
24 24 34 42 48 46 43 39 45 43 43 45 44 43 41 46 47 46 46 46 46 45 45 43 43 43 42 42 41 40 40 39 39 38 38 37 38 37 37 36 32 32 32 31
27 20 20 37 48 52 50 34 45 44 42 43 42 29 36 45 45 46 47 47 46 45 44 42 43 43 41 40 39 39 39 39 39 38 37 37 36 34 34 34 33 32 30 28
24 17 29 43 49 51 33 36 44 44 42 41 38 38 43 44 45 47 47 46 46 44 42 43 42 42 40 39 38 40 40 39 38 38 37 36 35 34 34 31 30 27 27 26
23 19 25 47 49 39 42 41 43 43 43 42 42 43 45 46 45 45 44 44 44 42 41 41 42 41 39 38 40 39 38 37 36 36 37 39 35 33 32 29 27 23 16 19
35 34 45 48 48 47 46 43 43 43 44 45 44 44 46 44 43 42 41 41 42 40 40 41 41 41 38 39 39 38 36 35 34 35 35 34 32 30 27 26 22 22 24 15
38 46 46 49 46 47 47 45 45 46 46 47 45 45 42 41 40 40 39 39 40 39 38 38 39 40 38 39 38 36 34 34 33 32 32 31 31 30 27 20 19 24 21 18
39 45 44 46 46 46 46 46 46 48 48 48 46 41 41 40 39 39 38 39 39 37 37 37 38 37 38 37 36 33 34 33 31 28 29 29 29 29 27 28 26 21 19 19
39 47 46 45 46 47 46 46 48 48 46 45 42 40 40 38 38 38 36 37 37 37 36 36 36 36 36 35 33 33 32 31 28 26 24 29 31 31 33 33 32 33 30 20
46 50 48 47 47 49 47 48 48 46 45 41 41 40 39 38 37 37 37 36 36 36 36 34 34 32 34 33 34 33 32 31 30 27 25 24 22 23 19 26 32 33 32 31
50 48 43 45 45 49 51 49 47 44 43 41 40 39 37 36 36 36 35 35 35 35 34 33 31 31 33 36 34 29 30 29 28 24 22 22 17 25 27 19 16 18 26 30
47 47 47 48 49 50 49 46 42 40 39 38 37 36 36 35 34 34 34 35 34 32 32 33 33 31 34 36 35 32 32 27 24 18 21 22 20 21 23 24 21 20 17 24
47 48 47 47 48 47 45 43 40 38 37 36 36 35 35 34 33 32 32 32 28 30 32 33 33 33 35 35 33 30 32 27 18 19 25 26 21 21 23 24 22 19 18 15
41 41 43 43 41 42 42 42 40 38 36 35 34 31 33 29 26 30 29 28 27 30 32 33 31 34 34 35 33 30 30 25 26 27 27 27 21 21 24 22 20 20 19 13
47 45 44 43 41 39 37 37 34 35 34 34 25 19 18 18 23 25 25 25 27 32 32 31 33 33 34 34 33 29 28 28 25 26 20 17 19 21 21 20 19 20 22 20
44 42 42 41 40 36 34 32 29 29 25 23 21 24 23 23 22 25 25 23 27 29 31 31 32 33 33 33 30 22 18 15 16 19 23 18 12 22 26 22 18 21 19 20
41 40 40 38 34 30 32 27 25 28 31 25 18 16 23 24 22 23 24 25 29 31 28 29 31 33 32 31 31 27 18 14 16 18 13 13 10 19 25 24 23 17 14 16
36 34 31 30 29 26 24 24 21 23 27 25 30 29 29 29 28 22 21 26 30 26 28 32 29 33 34 33 32 26 22 22 17 18 21 20 11 14 24 26 21 18 13 13
35 32 30 27 24 27 26 24 28 31 31 31 31 31 29 31 30 20 23 27 32 26 31 31 32 33 33 33 32 30 30 28 24 23 22 17 15 17 19 24 22 25 24 19
34 32 31 27 25 28 28 28 27 27 27 27 31 27 25 33 31 29 29 29 28 33 33 33 33 33 33 33 33 31 30 28 27 26 23 23 21 19 22 25 26 27 27 27
31 34 30 28 24 26 27 33 29 29 26 28 27 28 33 31 32 28 29 27 27 33 33 34 33 33 33 33 32 32 30 30 29 28 26 24 25 24 23 25 25 26 24 25
29 31 28 26 28 30 32 33 30 29 29 28 28 33 32 31 30 27 27 30 33 33 33 34 33 33 33 33 32 31 30 30 29 29 28 27 28 27 27 27 27 27 28 26
34 31 31 33 31 31 31 28 26 24 27 26 30 30 31 30 27 31 32 32 32 32 31 34 33 33 33 33 33 33 31 30 30 30 30 30 29 29 28 27 26 26 29 28
31 26 28 30 30 29 25 29 31 29 24 25 25 24 26 30 32 31 30 31 32 32 31 30 30 30 31 32 32 32 32 32 32 31 31 31 30 29 29 27 27 27 28 27

GFSNGP_sfc_temp_003.txt.gz
Temp
40 42 43 42 43 43 41 40 34 38 38 43 42 42 43 44 44 44 44 46 46 44 45 45 42 42 42 42 42 42 41 40 39 39 39 39 38 38 38 39 39 38 37 38
34 40 40 38 42 42 42 42 41 39 36 43 44 43 43 43 43 43 45 48 48 47 46 44 43 42 43 42 41 41 40 39 40 39 39 38 38 37 40 38 37 36 36 34
29 32 33 30 38 43 43 42 41 34 41 43 41 43 41 41 43 43 46 46 45 44 44 43 42 42 40 41 41 40 39 40 39 38 37 36 37 37 36 35 35 35 33 32
24 26 22 41 45 47 44 41 41 40 42 43 43 42 43 43 43 43 44 45 44 43 43 42 41 41 41 41 40 39 38 38 38 37 36 36 35 35 35 38 35 31 30 31
23 23 33 42 44 42 41 40 43 41 41 42 42 40 40 44 44 44 44 44 44 43 43 41 41 41 40 39 38 38 38 37 37 37 36 35 34 34 34 33 31 30 31 30
25 20 21 37 44 49 47 34 44 43 41 40 39 29 37 44 44 45 45 45 43 42 41 40 40 40 38 38 38 37 37 37 37 36 35 34 34 32 32 31 31 31 30 27
18 17 29 41 47 49 34 36 44 44 43 40 38 39 42 43 44 44 44 42 42 41 39 39 39 40 38 37 36 38 38 37 36 35 34 34 33 32 31 30 29 26 27 25
25 19 27 46 45 39 43 41 45 43 43 43 42 43 44 44 43 42 41 40 40 39 38 39 39 38 36 35 38 37 36 35 34 34 34 35 31 30 29 27 26 23 15 18
35 34 44 46 46 46 45 44 42 43 43 44 43 43 43 40 40 40 39 38 39 38 38 38 38 37 34 36 36 36 34 33 33 33 32 31 30 27 26 25 20 21 23 15
37 45 44 46 47 47 45 45 44 45 45 44 44 44 40 39 40 38 37 36 37 37 35 34 36 36 35 35 35 33 33 33 34 32 31 30 30 30 27 20 20 24 20 18
37 43 44 47 47 47 45 45 45 46 46 47 43 40 39 40 38 37 36 37 36 34 34 34 35 34 34 34 32 31 32 34 32 31 29 29 29 28 27 28 27 22 19 19
35 46 45 45 47 46 44 44 46 45 44 43 43 40 40 37 37 37 35 35 34 34 33 34 33 32 32 32 32 31 31 31 29 31 28 29 30 28 33 32 32 33 31 20
45 47 46 45 46 46 46 46 47 44 43 43 42 41 38 37 36 36 35 34 33 33 32 32 31 30 31 31 30 32 29 32 32 31 28 27 27 24 18 25 32 32 32 30
48 46 41 43 43 47 47 45 45 44 43 42 40 40 38 36 36 35 34 34 34 32 31 30 31 33 32 31 33 32 32 30 27 28 28 28 27 27 19 17 14 16 25 31
47 47 46 46 46 45 44 44 41 39 39 38 39 37 36 35 34 34 33 33 32 31 30 32 33 33 32 34 34 32 32 28 27 21 22 28 27 22 21 17 15 15 15 20
44 45 45 44 44 44 43 41 38 37 37 37 36 35 35 35 33 32 32 32 27 27 29 27 30 32 34 34 33 32 31 30 26 23 24 25 23 22 21 18 16 15 14 14
40 37 38 38 39 39 38 39 40 38 37 35 35 33 34 27 27 30 30 27 21 22 25 26 28 34 33 33 33 33 31 30 28 27 23 22 19 19 22 18 18 13 15 11
43 42 42 40 38 37 37 37 36 35 34 36 26 22 20 19 24 25 24 24 20 23 26 28 28 32 33 33 33 32 30 27 28 28 27 16 18 16 15 19 20 14 15 14
40 39 38 38 39 36 36 33 30 31 24 22 21 26 23 22 23 23 22 18 21 23 29 25 28 30 31 31 32 31 29 26 22 19 19 16 10 13 12 19 22 15 19 16
38 39 38 39 35 31 31 29 29 30 32 26 20 17 23 24 19 19 18 22 26 29 28 28 29 31 30 31 31 31 30 26 22 20 10 12 10 12 13 17 20 20 17 13
36 35 32 31 30 29 28 26 25 27 28 20 24 21 25 27 29 29 26 25 28 26 28 28 31 32 32 32 33 32 31 27 22 23 24 20 19 17 18 20 22 23 20 15
35 31 28 28 27 28 28 25 27 28 26 22 23 24 23 28 21 31 28 27 29 25 25 27 30 32 32 32 32 32 31 29 29 29 26 25 23 23 23 23 22 21 23 22
33 31 30 27 27 29 28 26 25 24 25 25 24 25 23 27 29 30 29 28 26 24 25 27 28 29 32 32 32 32 32 31 30 29 28 28 27 25 24 24 25 25 27 27
32 34 30 27 23 26 27 33 28 28 24 26 26 24 23 30 32 32 32 27 23 24 29 32 32 32 32 32 32 32 32 31 31 30 30 29 29 28 26 25 25 26 25 24
29 31 28 26 28 30 31 32 29 28 27 27 29 28 31 33 32 29 25 28 30 30 31 31 31 32 31 32 32 32 32 31 31 30 30 29 28 28 28 28 28 27 27 27
32 29 28 31 29 29 29 27 24 28 29 29 29 25 25 24 26 26 29 30 29 28 29 30 30 28 25 24 24 26 28 30 31 31 30 30 30 29 29 29 29 29 28 28
28 25 28 28 29 29 27 30 31 31 31 29 28 30 30 29 27 27 29 25 23 27 25 21 19 16 16 14 13 14 15 16 17 18 20 25 29 30 30 30 30 30 29 28

GFSNGP_sfc_temp_006.txt.gz
Temp
37 39 40 40 41 41 40 38 35 37 37 42 42 41 41 42 42 42 42 43 43 43 41 45 44 42 42 41 41 40 39 39 38 38 37 37 36 36 36 36 40 36 35 35
34 38 37 37 41 40 39 40 39 37 38 43 41 41 41 42 42 41 42 45 46 45 46 44 43 41 41 40 40 40 39 38 39 38 37 36 36 36 35 39 37 34 33 33
29 32 32 30 38 40 39 41 41 34 41 40 39 41 41 40 41 42 43 46 46 46 46 44 41 41 39 40 39 39 38 38 38 37 36 35 35 34 34 34 34 33 32 32
24 25 22 40 42 43 42 42 42 40 41 42 41 41 43 43 42 41 44 46 45 44 42 42 40 39 39 39 38 37 37 37 37 36 35 34 34 34 33 33 33 31 30 29
24 23 33 40 41 40 40 41 42 41 40 41 40 41 41 43 43 43 43 43 44 43 41 40 39 39 38 37 37 37 37 36 36 35 34 33 33 32 32 32 31 30 30 28
19 20 21 37 42 46 45 33 43 43 40 39 40 31 42 43 43 43 44 44 44 41 40 39 38 38 37 37 36 35 36 36 36 35 33 32 32 31 31 30 31 30 29 27
16 17 29 40 45 47 34 37 42 43 42 39 38 41 42 41 42 43 43 42 41 40 39 38 38 38 35 34 34 36 36 35 35 34 33 32 31 30 30 28 28 25 26 25
22 17 26 44 44 39 43 40 42 42 42 42 41 41 41 42 41 41 40 41 40 38 38 37 37 35 34 32 35 35 34 34 33 33 33 34 30 29 29 26 25 22 15 18
33 32 42 45 43 46 45 44 42 43 43 45 41 41 42 39 41 40 41 40 39 38 37 37 36 34 32 33 34 33 32 32 32 32 33 32 29 27 26 24 20 20 23 16
36 43 43 45 47 47 46 45 44 44 43 44 42 42 41 39 39 39 39 39 38 36 35 34 35 34 33 33 32 30 31 31 31 30 32 31 30 30 27 20 18 23 21 20
36 42 42 46 45 47 46 45 44 44 44 44 43 40 41 40 39 39 39 37 37 35 33 33 34 33 32 32 30 30 31 31 30 29 29 30 30 29 28 27 25 21 20 19
34 46 45 45 48 45 45 44 44 44 42 41 42 41 41 39 39 38 36 36 35 34 33 33 32 30 30 30 30 29 31 33 31 31 32 29 30 30 33 32 32 33 32 21
45 45 45 45 44 45 45 44 44 43 41 40 43 42 40 38 37 37 36 35 34 33 32 31 30 29 30 30 30 31 31 32 32 31 30 27 26 25 20 25 32 33 33 33
46 44 43 42 44 43 44 43 43 42 43 41 39 39 37 37 37 36 35 35 34 32 31 30 30 30 32 32 31 32 32 30 30 29 27 28 26 25 23 18 16 17 25 30
46 45 44 43 42 41 42 42 39 38 38 37 37 37 35 35 35 35 35 34 33 31 30 30 30 30 32 31 31 32 32 31 29 27 20 20 23 21 21 20 20 17 14 19
42 42 42 40 40 40 40 38 34 32 33 35 37 34 35 35 35 34 34 33 28 28 30 24 24 30 31 31 31 32 33 31 29 27 26 21 19 23 22 21 20 19 15 16
38 37 37 35 35 36 35 36 35 34 36 36 35 34 35 32 29 32 31 27 23 23 24 23 26 30 31 31 32 33 33 32 28 25 25 28 25 21 20 18 21 19 16 11
39 40 40 39 37 35 34 36 36 35 34 35 30 26 25 23 28 27 25 21 18 22 25 27 27 29 30 32 32 30 31 30 29 28 27 26 27 25 19 17 18 19 20 11
39 37 37 37 38 36 35 33 31 32 28 26 25 27 26 25 22 24 20 17 17 20 28 26 28 26 31 32 31 30 30 30 29 26 27 23 15 18 18 15 16 18 19 18
38 38 37 35 33 31 31 29 29 31 32 26 25 23 24 25 18 16 18 24 26 27 26 26 25 25 29 32 30 30 31 31 30 26 24 19 16 16 16 14 17 20 18 19
34 33 30 30 30 28 28 28 26 28 28 23 24 25 23 25 21 27 28 27 28 25 26 24 25 27 29 32 31 32 32 32 30 27 24 23 24 23 22 22 22 23 23 22
34 31 29 28 26 28 28 26 26 26 26 23 21 21 19 24 24 22 28 30 33 26 23 23 25 25 28 31 31 32 32 32 31 29 27 27 27 27 26 26 25 26 25 24
32 31 30 26 26 28 27 25 23 22 22 24 24 25 22 27 23 25 29 29 28 23 23 25 28 29 30 30 32 32 32 32 31 31 29 29 29 28 28 28 28 27 27 26
31 33 28 25 24 26 29 31 29 27 21 24 24 22 22 24 26 27 30 28 23 28 29 30 30 30 25 31 31 31 31 30 30 29 29 28 29 29 29 28 28 28 27 28
28 29 27 27 28 28 28 28 27 27 27 29 30 30 27 24 30 32 32 29 28 30 29 26 27 26 23 20 16 21 21 24 24 24 26 27 28 28 28 28 27 28 28 28
29 27 27 28 28 28 27 28 27 30 31 30 31 31 30 28 25 25 28 28 28 28 28 26 18 16 13 12 9 10 12 13 12 11 11 13 15 17 21 24 28 29 29 29
29 28 28 27 27 28 26 26 25 25 27 28 28 31 31 32 31 32 32 31 30 26 21 18 14 12 12 11 10 9 8 8 7 8 9 8 9 9 10 11 13 20 29 29

GFSNGP_sfc_temp_009.txt.gz
Temp
42 43 46 47 46 46 46 46 43 45 44 51 53 52 49 49 49 49 49 50 50 50 51 52 49 51 51 51 50 50 49 49 48 48 48 47 46 46 46 45 46 45 43 44
40 42 42 43 47 46 45 45 45 45 46 54 50 50 47 47 48 48 49 50 51 51 51 50 51 52 50 50 49 49 48 47 48 47 47 46 45 44 45 45 44 44 43 42
36 36 38 37 42 45 45 47 49 42 52 48 46 47 48 48 48 48 50 51 51 51 52 52 52 50 50 50 49 47 46 47 46 45 45 45 44 44 44 44 44 43 41 41
35 31 33 48 49 49 48 48 49 48 49 49 49 48 50 52 49 49 50 51 51 52 52 52 52 50 48 48 47 45 46 46 46 45 44 44 43 43 43 43 43 42 41 40
34 34 39 47 45 45 44 49 51 50 49 47 46 48 49 51 51 52 52 52 53 53 51 49 50 48 47 46 45 45 45 45 45 44 43 43 43 43 43 42 42 41 40 38
30 33 31 44 49 51 52 42 52 50 47 44 47 43 52 51 51 50 51 51 50 49 48 48 46 46 45 44 43 43 43 43 44 44 43 42 42 42 42 42 40 40 37 36
26 33 37 46 50 52 41 45 48 49 48 45 46 51 52 50 48 51 50 47 45 47 47 46 45 45 43 42 42 43 42 43 43 43 42 42 42 42 41 40 38 35 33 34
27 30 33 48 50 44 50 49 49 49 49 47 51 47 48 46 46 46 46 46 46 45 45 44 44 43 42 42 42 42 41 41 41 42 41 41 40 41 39 38 36 33 30 31
38 40 48 50 49 52 50 50 51 49 51 50 47 47 46 45 45 45 45 45 46 45 43 43 43 42 41 41 40 39 39 40 40 40 40 41 40 40 38 37 35 33 33 32
40 47 45 48 51 52 53 53 52 52 52 49 48 47 45 43 43 44 44 45 44 43 41 41 41 40 40 39 39 38 38 38 39 38 38 40 40 40 37 35 34 34 34 33
41 45 47 50 51 54 53 51 50 51 50 49 49 46 44 43 41 41 40 40 43 41 40 40 40 39 39 38 37 36 36 38 36 35 36 36 38 39 36 38 37 36 35 34
41 51 51 51 54 53 51 51 51 49 47 46 47 44 43 41 42 40 40 41 40 40 39 38 38 37 37 37 36 35 35 37 35 35 35 36 35 37 34 34 32 33 33 31
51 51 51 52 52 52 51 50 48 47 46 44 44 44 43 40 37 37 41 40 39 39 39 37 37 36 37 36 36 35 35 36 36 34 35 34 34 33 33 35 32 33 34 34
50 50 48 49 48 46 45 43 43 43 43 40 39 41 38 37 37 39 39 40 39 38 37 36 36 35 37 38 37 35 35 33 34 35 35 35 35 34 33 31 31 33 33 32
46 49 46 44 44 43 43 42 39 38 38 38 38 37 36 36 36 38 38 38 36 36 36 36 35 36 38 38 37 36 36 36 35 34 34 33 32 32 31 31 31 31 33 29
42 43 43 40 39 39 40 38 35 34 36 36 37 37 37 37 38 38 37 36 32 33 37 32 30 36 37 36 36 36 37 34 33 34 34 33 33 32 32 32 32 32 31 32
40 36 36 36 35 36 36 37 37 37 37 38 38 36 38 34 32 35 34 33 31 31 31 30 31 37 35 36 36 37 36 36 33 33 33 33 33 32 33 32 31 32 32 32
41 40 39 37 36 35 35 37 37 37 37 38 33 32 31 30 32 31 30 29 27 27 30 32 32 33 35 36 36 35 34 34 34 32 33 32 32 33 32 32 32 31 32 32
39 38 38 38 39 37 36 36 34 34 32 31 30 31 30 29 29 30 29 26 26 27 34 33 32 31 33 34 34 34 34 33 33 32 32 31 31 31 31 31 31 30 31 31
39 40 39 38 35 32 33 32 32 33 33 31 29 29 30 30 29 27 27 27 30 34 33 33 32 32 32 34 32 36 33 32 33 33 32 31 30 30 30 28 29 30 30 30
36 35 33 33 32 31 31 30 29 31 31 27 28 29 28 29 29 25 29 30 34 32 32 29 32 34 35 33 35 33 32 32 32 32 32 31 30 29 29 30 30 30 30 31
37 33 30 29 27 31 29 29 30 29 29 28 27 24 24 27 29 28 27 31 37 30 33 34 34 33 33 31 34 32 32 32 32 32 32 32 31 31 31 31 31 31 31 31
34 33 31 29 28 29 30 30 27 27 26 27 26 27 29 30 31 29 32 36 34 33 33 33 32 31 30 31 32 32 32 32 32 32 32 32 31 31 31 31 31 31 31 31
33 32 30 28 27 29 27 28 28 29 30 31 31 31 29 28 29 34 33 32 32 31 31 32 32 31 30 31 29 27 26 27 26 24 25 25 26 28 30 31 31 32 31 31
29 29 28 28 27 26 27 28 29 30 30 30 31 32 33 33 29 30 31 31 32 32 32 33 28 23 25 23 22 20 20 20 18 18 18 18 18 18 20 20 21 22 24 30
29 28 28 28 27 26 25 25 23 26 25 24 27 29 29 30 31 31 32 33 33 33 31 24 22 20 19 18 17 16 16 16 15 15 14 14 14 14 14 14 15 16 17 19
27 25 25 25 24 22 20 20 18 19 21 21 21 23 24 26 26 27 27 29 31 26 21 19 17 15 15 15 14 14 14 14 12 11 12 11 11 11 11 11 12 13 15 16

GFSNGP_sfc_temp_012.txt.gz
Temp
54 54 55 57 58 57 57 58 51 58 58 65 67 68 68 66 64 63 61 60 61 61 62 62 62 61 57 62 61 60 59 59 57 57 56 56 54 54 53 52 52 52 50 50
48 51 52 51 58 59 59 60 58 60 58 70 69 67 65 62 61 60 59 60 61 62 62 62 62 58 61 60 59 59 57 57 57 56 54 53 53 52 52 52 52 52 51 49
46 47 47 41 51 58 59 61 59 54 63 65 61 61 63 62 61 60 60 61 61 62 62 62 61 61 60 60 59 57 56 55 54 53 52 52 53 52 52 51 51 50 50 48
43 39 35 57 59 59 60 62 64 63 62 63 64 64 64 66 63 61 62 62 63 63 62 62 61 61 61 59 57 55 54 53 53 52 52 52 52 51 51 51 50 49 49 48
39 44 51 58 56 54 53 58 65 63 65 62 59 59 62 63 65 64 63 64 64 64 63 61 61 60 57 56 55 53 52 52 52 51 51 51 50 50 50 50 49 49 48 46
40 38 36 54 57 59 59 51 62 62 61 58 57 52 65 65 64 63 65 65 63 63 61 60 58 55 55 54 51 50 50 50 51 51 50 50 49 49 49 49 48 48 45 45
41 39 48 58 58 60 46 52 61 61 61 59 57 64 63 63 64 63 64 62 61 59 58 57 56 55 52 50 50 50 49 50 50 50 49 49 49 49 49 48 47 44 41 42
38 36 37 58 56 50 58 61 60 60 62 60 63 60 59 58 59 61 60 58 58 55 52 49 51 52 51 50 51 49 48 48 48 48 47 48 47 48 48 47 44 41 36 38
50 52 58 60 62 63 61 60 61 61 64 61 61 60 58 57 57 57 58 56 52 48 46 49 51 50 49 50 48 47 46 46 47 46 47 47 46 46 46 46 43 41 40 39
48 58 59 61 63 64 64 62 64 65 63 63 60 62 59 56 55 55 54 50 52 44 46 47 47 48 48 48 47 45 44 44 45 43 40 43 46 46 45 44 42 41 40 40
52 58 60 61 62 63 64 64 62 63 61 60 59 59 58 54 53 52 44 42 43 44 46 46 46 47 47 45 45 43 42 42 43 42 40 39 39 41 42 45 43 41 41 40
50 63 59 61 62 61 60 60 60 59 59 56 56 55 55 52 47 43 41 40 41 43 43 44 44 43 43 44 43 41 39 41 43 42 41 40 39 39 36 35 34 34 34 34
57 59 59 60 60 58 56 54 54 54 54 51 52 51 48 41 38 37 41 42 42 43 43 41 42 41 43 43 41 38 39 41 42 40 41 39 38 37 35 37 34 34 34 34
57 57 56 54 52 52 51 48 47 48 49 47 44 42 38 37 38 39 40 43 42 41 41 40 40 40 42 42 41 40 41 35 40 40 41 40 38 37 36 34 34 35 34 34
52 54 52 52 49 45 46 45 42 39 38 38 39 38 39 41 42 43 44 43 40 39 39 40 41 42 44 43 43 42 41 41 40 37 36 36 37 37 37 36 34 34 36 33
49 50 48 42 41 41 39 38 36 36 37 39 41 43 45 44 42 42 42 41 35 38 41 37 36 40 44 44 43 42 41 35 35 38 35 34 36 36 35 34 33 34 34 36
44 41 40 39 39 37 37 39 41 44 43 44 43 43 43 41 37 40 40 39 34 33 34 34 35 44 42 42 43 44 42 41 37 38 38 37 36 36 36 34 34 35 36 35
47 45 41 38 38 39 41 43 43 41 41 40 33 33 33 32 33 34 35 34 32 32 34 35 36 39 42 43 42 43 41 39 38 37 38 36 36 37 35 35 35 34 36 35
41 40 43 44 45 43 40 38 35 35 34 33 33 33 33 32 33 34 34 32 31 32 40 39 35 33 39 39 37 40 37 35 36 37 36 35 33 34 33 33 33 34 34 35
45 45 45 42 39 36 36 34 34 38 39 34 32 33 33 33 33 32 32 31 35 38 39 39 37 37 38 39 34 40 38 35 36 36 34 35 33 32 32 32 32 32 33 33
42 39 36 34 33 33 32 32 32 32 36 32 31 31 31 32 33 32 33 38 42 39 39 36 37 39 42 39 41 37 35 34 33 34 33 33 33 33 33 32 32 32 32 32
42 37 33 34 33 34 33 33 33 32 31 31 30 30 30 31 31 32 34 34 39 35 37 36 37 37 38 34 38 35 33 33 34 33 33 33 33 32 32 32 32 32 32 32
39 37 34 32 32 33 32 30 30 30 30 31 31 31 31 31 31 29 29 36 34 33 34 33 33 32 32 32 32 32 32 32 32 31 31 30 30 31 31 31 31 32 32 32
37 35 32 31 31 31 30 33 32 32 31 32 32 31 32 31 31 36 35 33 33 33 33 33 33 32 32 32 32 32 30 29 28 27 27 25 26 26 27 27 27 28 28 29
31 31 31 31 32 32 31 31 32 32 30 31 31 32 31 32 29 31 31 31 31 31 32 32 27 27 28 28 27 25 26 25 23 23 23 23 22 21 23 23 22 23 23 24
33 33 33 30 30 30 29 29 28 29 28 27 28 28 28 29 29 29 29 27 26 25 25 24 21 22 22 21 21 20 21 21 21 20 18 19 19 18 18 19 19 20 20 21
30 29 31 30 29 27 25 25 24 23 24 23 22 25 26 25 25 24 23 23 22 22 21 21 19 17 17 17 17 17 18 18 16 15 16 15 15 15 15 15 16 17 17 18

GFSNGP_sfc_temp_015.txt.gz
Temp
64 63 63 64 64 64 62 62 55 60 64 70 72 73 74 75 74 75 73 71 71 69 68 68 67 66 66 64 63 64 63 63 62 61 60 59 58 57 56 54 55 55 54 52
53 62 61 58 63 65 65 64 65 66 64 75 75 76 73 73 71 71 71 70 70 69 68 67 66 66 65 63 63 63 61 60 61 60 59 57 56 55 55 55 55 55 54 53
49 53 54 44 54 62 65 68 66 58 67 73 69 69 70 71 70 69 70 70 68 68 68 68 68 66 63 63 63 61 60 60 59 58 56 55 55 55 55 54 54 53 53 52
47 41 34 61 67 67 64 68 71 70 71 72 70 71 72 73 72 69 69 70 70 70 68 69 69 66 63 65 63 60 59 58 57 56 55 55 55 55 54 54 52 52 52 51
40 47 55 60 65 61 59 61 71 68 71 72 69 67 68 72 72 72 71 72 72 71 70 69 67 67 63 61 59 57 55 56 56 55 54 54 53 53 53 52 52 51 52 50
45 38 35 56 62 65 65 54 67 68 66 66 65 55 66 70 71 72 73 72 71 71 70 68 66 65 60 59 57 56 55 54 54 55 54 53 53 52 52 52 51 52 50 49
45 41 50 64 64 66 49 53 65 66 67 66 62 66 68 68 70 72 72 71 71 70 67 66 64 59 57 54 53 54 54 53 53 54 53 52 51 51 51 50 49 47 45 45
46 37 37 65 63 54 61 66 66 67 67 64 66 67 68 67 66 68 69 68 66 63 61 59 58 55 50 48 53 52 52 51 52 52 50 50 48 49 49 49 47 45 39 42
55 54 64 67 66 69 68 64 66 65 67 67 66 66 67 67 65 65 66 64 62 57 53 52 48 46 47 50 51 50 49 48 49 49 48 48 46 46 46 48 46 43 41 39
54 63 65 67 70 69 69 67 68 69 68 67 64 65 65 66 63 62 62 58 57 51 45 43 45 46 50 48 47 47 45 44 45 45 44 43 44 46 47 46 43 41 40 40
57 63 66 67 68 67 67 67 66 68 66 63 62 63 64 62 59 59 55 49 46 41 40 42 47 48 48 47 46 43 41 43 43 42 43 44 45 44 42 44 42 41 41 41
52 63 61 64 65 64 63 62 61 61 61 60 60 60 60 55 54 48 43 41 39 40 44 45 45 45 45 46 44 41 40 41 42 42 43 45 43 41 39 37 37 36 35 36
59 64 63 63 62 61 58 58 57 56 56 53 53 53 48 40 39 39 40 41 42 45 46 46 45 44 44 44 43 41 40 40 41 40 43 43 41 39 35 38 36 35 35 35
60 61 59 57 55 55 54 53 48 47 46 44 43 42 40 39 40 41 43 46 47 47 45 44 43 42 44 46 44 42 42 36 42 43 42 40 41 39 38 35 34 36 35 35
57 58 56 55 53 50 48 43 39 39 41 42 46 45 47 46 46 48 49 49 46 45 45 45 44 45 49 48 46 44 43 44 43 41 39 37 36 35 37 37 36 36 37 34
55 54 52 48 45 42 40 41 41 43 45 46 48 47 49 49 48 48 48 47 41 42 45 36 38 45 47 47 46 46 45 38 37 40 39 38 36 36 37 36 36 36 36 35
45 43 44 40 39 39 44 47 48 48 47 45 45 41 42 40 40 45 44 44 37 34 36 36 36 45 45 47 47 46 46 43 37 39 39 37 37 36 36 36 36 36 35 35
51 48 46 46 45 45 45 44 42 41 40 41 33 33 32 32 33 35 36 36 33 34 37 40 41 42 44 46 46 46 43 41 39 37 37 36 36 37 36 36 36 36 36 35
48 46 47 47 46 42 41 40 36 36 34 33 32 32 32 32 34 35 35 33 32 35 44 43 36 37 41 41 39 43 41 37 37 37 37 36 35 36 35 34 34 34 35 35
47 48 46 43 39 38 37 33 35 39 40 34 32 32 32 32 32 32 33 33 37 40 40 39 39 40 41 41 37 40 39 37 37 37 36 36 34 33 34 34 34 34 33 33
44 41 37 34 33 33 33 33 33 32 36 32 31 31 31 32 32 32 32 34 39 36 36 35 36 36 37 37 36 35 36 35 34 34 34 33 32 33 33 33 33 32 33 33
43 37 34 35 34 33 32 33 32 32 32 32 32 32 31 34 33 34 33 34 38 34 35 36 37 36 35 34 35 33 33 33 33 34 33 33 32 31 30 32 32 32 32 32
41 38 35 32 33 33 34 32 32 32 31 31 31 30 31 34 35 32 31 35 34 33 33 34 31 30 31 32 33 32 32 32 33 32 30 30 29 28 29 29 29 29 29 29
39 36 33 33 34 34 34 35 35 34 31 33 32 31 31 30 31 34 34 32 30 28 29 27 26 25 28 29 28 28 29 28 27 26 26 26 26 26 26 26 25 26 25 25
34 34 34 34 36 36 35 35 35 35 33 33 33 33 31 32 29 30 29 28 26 26 25 25 23 22 24 24 23 23 23 23 22 22 21 22 22 21 22 23 22 22 22 23
37 38 36 34 34 34 33 33 30 32 30 29 29 29 30 30 28 27 26 25 25 24 23 23 22 21 21 21 20 20 20 20 18 18 18 18 18 19 18 18 18 19 19 20
33 33 36 35 33 32 29 29 27 26 28 25 24 28 28 27 25 24 23 23 22 22 21 21 21 20 19 18 18 18 18 17 16 15 16 15 15 16 15 15 16 17 18 18

GFSNGP_sfc_temp_021.txt.gz
Temp
52 56 58 55 56 57 53 50 41 46 50 56 57 57 59 61 62 63 63 62 62 61 59 61 59 57 57 55 55 54 53 53 54 53 53 51 50 49 49 48 48 47 46 45
42 54 52 48 53 54 54 55 52 52 52 59 61 61 61 62 63 62 62 62 63 61 60 60 58 57 57 55 53 54 52 52 54 52 51 49 48 47 47 47 47 46 45 45
35 44 44 35 46 51 53 55 52 45 54 59 57 58 57 58 61 61 61 61 62 61 60 59 57 59 55 55 54 52 51 54 53 49 48 48 49 48 48 47 45 45 45 44
32 33 26 48 59 59 54 56 56 56 55 56 56 57 58 59 57 58 60 61 61 61 60 58 56 56 54 55 53 52 53 50 48 47 47 48 48 47 45 45 44 44 43 43
30 30 41 50 54 52 50 48 55 54 55 57 58 54 53 58 59 58 59 59 60 61 60 58 56 54 54 52 52 51 48 46 46 47 46 46 44 43 44 43 43 42 44 42
31 28 25 43 55 60 58 38 55 55 54 54 54 36 46 57 59 58 59 55 52 52 51 51 51 54 50 47 45 43 44 45 45 46 45 44 43 42 42 42 42 42 41 39
26 25 35 53 59 59 38 39 54 56 54 53 48 49 56 57 58 57 52 49 48 47 46 45 48 47 45 43 41 43 44 44 45 46 44 43 43 42 41 40 39 35 35 34
31 29 29 57 56 45 48 53 54 54 53 53 54 56 57 57 55 52 47 46 45 42 41 44 45 43 40 40 43 45 44 44 43 43 43 45 41 39 38 36 34 33 32 32
39 36 50 56 55 57 57 55 54 54 55 56 53 53 55 53 49 48 44 42 42 40 41 42 43 43 40 42 44 43 41 41 41 41 41 42 39 36 34 33 29 30 30 27
44 52 55 57 59 57 57 55 55 55 53 53 52 52 49 47 44 43 42 40 42 41 40 39 42 43 43 43 42 40 38 37 38 37 37 37 37 37 34 28 27 29 29 30
47 52 53 53 54 55 54 55 53 52 49 51 48 47 45 42 41 40 41 41 41 39 39 40 42 41 41 40 39 37 36 36 35 32 33 34 35 34 32 32 32 29 28 29
34 52 49 48 52 53 51 49 50 47 43 44 44 42 41 39 39 38 37 39 39 39 39 41 41 40 41 41 39 36 34 31 30 30 30 32 32 32 36 35 35 36 36 31
49 53 50 49 47 48 45 44 45 44 43 41 41 40 39 36 35 37 39 38 38 39 39 40 39 38 39 39 37 35 32 32 30 31 30 30 29 29 25 30 36 36 36 36
53 51 47 48 42 45 43 43 43 42 42 41 39 40 36 35 37 38 39 41 41 41 40 39 38 37 38 39 38 34 32 32 31 31 30 31 32 32 32 33 29 30 32 35
49 49 47 45 44 42 43 42 41 39 41 39 40 39 39 40 40 40 39 39 39 38 36 35 33 34 37 38 39 35 33 31 32 32 32 32 34 35 34 34 29 29 29 28
48 46 44 41 40 40 43 42 39 38 38 37 36 36 38 39 37 37 36 33 29 29 30 29 30 33 37 37 37 36 34 31 31 33 33 35 35 34 34 31 30 29 29 29
39 37 38 39 39 40 40 41 38 38 36 32 31 30 32 30 31 31 31 32 31 30 31 32 31 36 36 38 37 34 34 34 32 34 34 34 33 32 32 31 32 31 31 29
47 45 44 43 40 38 36 35 32 31 30 32 31 31 31 29 29 29 28 27 30 31 32 32 31 32 32 34 32 31 30 30 30 31 32 32 34 33 33 33 31 30 28 25
44 42 42 41 39 36 33 31 30 30 31 31 31 29 27 23 25 25 25 21 26 26 28 30 29 27 26 27 26 25 25 26 27 28 29 28 29 32 31 32 32 28 24 30
39 39 38 35 34 32 32 32 30 30 31 28 24 21 22 20 19 18 20 24 27 26 28 27 25 23 23 24 21 24 25 25 25 25 26 27 28 29 30 29 28 25 25 30
34 32 31 31 30 31 31 30 27 27 29 23 23 17 16 20 19 15 21 23 24 24 25 23 22 21 22 19 23 21 20 21 20 20 21 21 23 23 24 24 24 24 23 23
33 31 30 30 29 29 28 28 28 26 24 21 15 15 16 23 18 20 16 22 24 15 21 21 20 14 18 16 20 17 17 18 15 16 16 17 18 18 19 19 20 20 19 19
33 32 31 29 28 29 28 26 23 22 18 16 15 17 18 21 21 19 18 23 22 17 21 18 13 10 10 12 15 16 14 15 12 12 12 14 14 14 15 14 14 15 15 16
32 32 32 31 28 27 28 28 28 26 18 23 17 14 21 14 12 21 19 15 10 10 11 14 12 11 6 4 8 13 11 12 11 10 9 11 11 12 12 11 11 12 12 12
32 32 30 28 29 28 29 29 27 27 26 26 25 25 24 21 13 13 10 11 14 12 7 7 9 8 4 1 4 10 10 10 7 8 6 7 6 8 8 8 9 9 10 11
31 29 29 29 27 26 25 25 22 21 21 15 15 11 13 13 14 13 10 9 11 10 6 2 2 3 5 2 1 1 1 7 4 7 4 2 3 4 3 5 6 8 8 9
30 28 28 26 26 26 23 21 19 14 12 7 8 8 17 13 7 10 5 3 3 3 1 0 1 2 4 5 -0 2 -2 -1 -1 6 -3 -5 0 1 2 4 5 6 6 7

GFSNGP_sfc_temp_024.txt.gz
Temp
49 51 52 50 50 51 49 47 39 45 46 53 56 57 56 58 58 57 57 58 57 56 57 57 56 55 53 53 53 53 52 51 49 50 48 46 45 45 45 45 46 45 44 43
41 48 49 46 50 49 50 50 49 49 48 55 55 56 55 56 58 57 57 58 59 57 56 55 55 54 54 52 52 52 51 51 51 48 47 47 46 45 44 45 47 46 44 42
36 40 42 34 44 49 50 51 51 43 49 52 51 54 53 54 57 56 55 56 56 55 56 57 55 55 54 52 52 51 51 52 48 48 47 46 45 44 45 45 44 44 43 42
30 32 26 46 54 54 50 49 51 51 51 52 51 51 52 53 53 54 56 57 56 55 55 54 53 55 52 51 50 50 50 48 47 47 44 45 43 43 43 43 42 40 40 42
30 29 39 47 51 50 47 44 51 50 52 52 52 51 51 55 54 52 50 48 47 47 49 50 51 50 49 48 47 45 43 45 45 43 43 42 42 41 41 41 41 40 41 40
29 27 25 41 51 56 53 36 52 51 50 51 50 35 45 53 51 47 46 46 45 45 46 45 45 46 43 42 42 40 42 43 43 44 42 40 40 40 41 41 40 39 39 38
23 24 33 47 54 55 38 39 52 51 50 49 46 46 51 47 46 45 44 43 44 43 41 41 43 43 41 41 40 43 44 43 42 42 41 41 40 41 40 37 35 33 33 33
31 26 30 52 52 44 45 49 52 51 51 48 49 49 48 47 45 43 41 41 42 40 40 42 43 43 41 40 42 42 42 42 41 41 42 43 39 37 36 34 31 31 27 30
37 36 48 52 52 53 53 52 51 51 50 51 49 47 46 43 41 40 39 39 41 40 40 42 43 43 41 42 43 41 41 40 38 39 38 38 35 34 32 31 26 29 28 25
42 48 48 50 51 52 52 50 50 50 51 50 45 44 42 41 40 39 39 39 40 41 40 39 42 42 40 40 39 38 36 36 35 34 34 34 34 33 31 27 26 29 29 28
43 45 49 49 49 50 48 47 46 46 46 45 43 41 40 39 39 38 37 37 37 36 38 39 39 39 39 39 38 36 35 34 33 29 31 31 32 31 31 31 31 30 30 29
37 49 46 45 47 48 47 45 44 43 41 42 42 39 39 36 37 36 35 36 36 36 37 38 38 38 39 39 37 35 34 31 30 29 28 30 31 31 34 35 35 34 35 32
47 49 46 43 44 45 42 42 42 41 40 38 38 38 38 35 34 36 36 36 36 37 38 37 36 35 35 35 35 33 31 31 30 30 29 29 29 29 30 33 34 36 36 36
48 47 43 43 38 42 41 41 41 40 39 39 39 38 36 35 35 35 36 37 37 36 34 33 33 32 33 35 34 33 31 31 30 30 30 31 30 30 32 33 33 33 34 34
44 46 43 42 41 40 41 40 38 38 39 38 39 38 37 35 34 33 33 34 34 32 31 33 32 32 35 35 35 32 32 31 30 27 31 32 33 33 32 32 33 32 32 28
42 42 41 39 38 38 39 40 38 36 36 35 33 33 34 34 33 32 32 31 30 30 31 29 29 32 34 33 31 30 29 28 27 29 29 29 31 33 33 33 33 32 31 30
37 34 36 36 37 37 39 40 38 34 31 30 30 31 31 30 30 30 29 31 31 30 29 28 27 30 29 28 27 25 25 25 25 26 26 27 27 27 28 28 29 31 31 33
44 42 41 39 37 36 34 33 31 31 31 32 30 26 24 24 25 25 25 27 28 26 27 27 26 26 26 26 25 24 23 23 24 25 25 24 25 26 27 28 28 28 30 33
43 40 40 39 38 34 31 30 30 31 30 30 25 24 24 22 24 24 25 22 19 22 24 25 24 23 24 23 22 23 20 19 20 20 21 20 20 22 22 22 23 24 25 26
38 38 36 35 34 32 30 30 31 30 29 25 23 23 23 20 17 18 22 20 22 23 25 23 22 22 22 21 17 19 16 17 15 15 15 15 16 16 17 18 19 18 18 19
33 32 31 31 30 31 29 28 27 26 27 22 22 19 18 20 18 16 20 21 23 22 23 20 19 19 20 16 17 9 11 12 9 11 9 11 12 11 13 13 14 14 14 15
32 30 29 30 29 28 27 28 27 25 24 20 17 14 18 22 18 20 15 20 22 12 17 19 18 8 13 9 15 6 10 11 8 7 7 9 8 7 10 9 9 10 12 12
31 31 29 28 28 28 27 25 24 23 20 18 17 17 20 22 20 15 14 21 20 12 17 11 7 4 4 -0 -0 -1 1 3 -1 1 -0 5 5 5 7 5 7 8 8 9
31 31 30 29 28 27 26 27 28 24 20 22 16 13 21 15 9 19 17 9 5 3 4 3 4 4 1 -4 -5 -5 -5 -1 -6 -3 -0 -2 -2 2 2 1 3 4 6 8
31 31 29 28 29 27 29 28 26 26 25 24 23 23 22 20 12 11 5 6 9 7 2 -1 2 1 -5 -8 -8 -8 -9 -7 -9 -4 -5 -11 -5 -2 -3 -1 0 1 4 4
29 27 27 27 26 26 25 24 20 20 19 14 13 4 12 13 13 10 5 4 5 4 -0 -6 -7 -6 -7 -2 -7 -9 -9 -6 -8 -3 -8 -11 -8 -4 -4 -2 -0 1 2 3
26 25 24 23 24 23 22 21 18 14 11 7 7 6 11 7 2 4 -3 -4 -3 -5 -7 -6 -8 -5 -6 -7 -4 -4 -7 -10 -10 -5 -14 -16 -12 -8 -6 -3 -2 -1 0 1

GFSNGP_sfc_temp_027.txt.gz
Temp
46 48 49 49 49 48 46 44 38 44 42 51 51 54 54 54 54 54 54 54 54 53 53 54 52 51 51 50 51 51 50 50 48 51 51 50 47 44 42 42 43 43 43 44
40 45 45 44 49 48 47 47 46 46 45 51 51 49 51 53 54 53 53 54 55 55 54 53 52 51 51 51 51 50 49 49 52 50 48 45 45 43 42 44 45 44 44 42
36 38 39 34 42 46 48 50 49 42 49 49 48 50 48 50 52 52 53 53 54 52 53 53 52 52 51 51 50 49 47 49 48 46 45 44 44 44 44 43 43 43 41 42
30 32 25 45 50 50 47 46 47 47 48 48 47 47 48 50 50 50 50 49 48 46 49 51 50 50 48 47 46 45 44 45 45 45 44 44 43 42 42 42 40 40 40 40
31 30 38 45 48 47 45 43 47 46 47 48 49 48 48 50 47 45 44 44 43 43 43 43 45 46 45 43 43 43 42 43 44 44 43 42 41 40 40 39 40 39 39 38
28 28 27 41 48 53 51 36 50 49 48 47 46 34 43 47 45 43 42 41 41 41 41 41 41 43 41 40 40 40 41 42 43 43 42 40 39 39 39 40 39 38 35 35
24 25 33 45 52 53 37 39 49 50 49 47 45 44 45 43 41 41 41 41 41 40 39 40 41 42 40 40 40 42 42 42 42 42 41 40 40 40 40 38 34 31 31 31
26 24 30 50 49 43 45 45 49 48 49 46 44 43 42 42 40 40 39 40 40 39 38 39 41 42 40 40 42 43 43 42 42 41 41 41 39 36 35 33 30 30 27 29
37 36 47 49 48 51 50 49 49 49 48 49 44 42 41 39 38 38 38 37 38 38 38 39 40 41 39 40 42 41 41 40 38 37 37 36 33 32 31 30 27 28 29 28
40 45 46 47 47 50 49 49 49 48 48 47 42 41 39 39 38 37 36 36 37 38 37 37 40 39 39 39 37 36 35 34 34 33 33 32 32 32 30 27 27 29 29 29
40 42 46 46 45 45 44 45 44 44 44 43 41 39 39 37 37 36 35 36 36 35 35 35 36 36 36 36 36 34 34 34 33 30 31 31 31 31 31 31 31 31 30 30
36 47 46 45 45 45 44 42 43 42 40 41 41 38 38 36 36 35 35 35 34 34 34 34 34 33 34 35 33 32 32 30 29 29 29 30 30 31 34 34 34 35 35 33
48 45 43 42 42 43 41 41 41 40 40 37 38 37 37 35 36 36 35 34 33 33 33 32 31 31 32 32 32 31 30 30 30 29 29 29 30 29 28 33 36 35 35 36
44 44 40 40 38 40 40 39 40 38 38 37 37 38 37 35 34 35 33 33 32 31 31 31 30 30 32 32 31 30 29 29 27 27 27 28 28 29 31 31 30 32 35 35
41 43 42 40 39 38 39 38 36 35 36 37 39 37 36 34 31 30 31 32 33 33 29 28 28 28 30 29 29 28 27 26 26 25 24 24 25 26 26 27 28 30 31 32
40 40 39 37 36 37 37 36 36 35 35 35 34 34 33 32 31 30 33 33 30 26 26 20 25 27 28 27 26 25 24 23 21 23 24 24 25 24 25 25 25 26 27 27
35 34 35 34 35 36 36 38 37 34 33 32 31 30 31 30 29 29 31 29 25 24 25 23 23 26 26 25 24 23 22 22 20 22 21 21 20 20 22 21 21 22 21 22
43 41 40 39 37 34 33 33 32 32 31 30 26 25 23 23 24 25 27 26 22 22 24 24 24 24 25 24 24 22 19 19 18 17 18 15 16 18 17 18 18 18 17 19
41 39 38 37 36 33 32 31 31 31 28 28 25 24 23 22 24 23 22 18 17 20 23 23 23 21 22 21 19 18 15 13 12 15 13 11 13 12 11 13 13 13 13 14
38 37 36 34 33 32 30 30 30 29 29 26 24 23 23 19 20 18 19 19 21 22 24 22 21 20 19 19 13 16 11 6 10 9 8 8 7 6 7 10 8 8 9 10
34 33 32 31 29 30 30 29 27 26 27 23 23 20 20 19 18 15 18 20 22 22 22 18 18 17 18 13 15 2 4 1 -1 3 -2 2 4 3 4 6 4 5 6 7
31 31 30 30 28 27 27 27 26 24 23 20 17 18 18 19 17 18 14 19 22 12 16 16 16 6 10 6 10 -1 4 2 1 -1 -2 -2 -2 -2 1 0 -0 2 4 4
31 30 29 28 28 27 27 25 23 22 19 18 18 19 20 21 20 15 15 20 18 10 15 7 4 2 -0 -5 -6 -8 -7 -6 -9 -7 -9 -13 -12 -8 -2 -3 -3 -1 -0 1
30 30 29 27 27 27 25 26 26 22 19 21 17 16 20 15 12 18 16 8 4 1 1 -2 -1 1 -4 -9 -10 -12 -11 -12 -14 -14 -9 -11 -16 -12 -10 -7 -5 -3 -2 -0
30 29 28 27 28 27 27 27 25 25 24 23 23 22 21 19 11 11 5 4 7 4 -1 -5 -2 -4 -11 -12 -13 -14 -14 -14 -16 -14 -16 -18 -15 -12 -12 -11 -8 -5 -3 -2
29 27 26 26 25 24 24 24 22 20 20 16 15 10 9 12 11 10 4 2 3 1 -3 -10 -11 -12 -12 -9 -10 -11 -12 -11 -15 -13 -17 -18 -17 -14 -13 -10 -9 -6 -5 -4
24 24 23 22 22 22 21 21 20 18 16 15 15 13 12 9 5 6 -3 -4 -5 -8 -10 -11 -12 -10 -10 -13 -12 -8 -8 -13 -16 -13 -20 -22 -18 -19 -16 -13 -11 -9 -7 -6

GFSNGP_sfc_temp_030.txt.gz
Temp
44 47 47 47 47 44 44 42 38 42 41 49 50 51 53 52 52 52 51 51 51 50 50 51 51 50 49 48 47 48 48 48 47 46 46 47 47 45 44 44 45 44 44 44
39 43 44 42 46 45 44 44 43 43 43 51 49 47 48 49 51 50 50 50 51 50 50 51 50 49 49 48 48 48 47 46 47 46 46 44 45 44 44 43 44 44 43 42
36 36 39 34 40 44 44 46 46 40 47 49 45 47 45 47 49 48 47 47 47 48 50 50 49 49 47 47 47 46 45 46 45 45 44 42 44 44 43 42 42 42 41 40
30 32 25 44 47 47 46 46 46 46 45 47 47 44 45 46 46 46 45 44 43 42 43 43 45 45 44 45 44 43 42 42 43 43 44 44 44 42 41 41 40 40 39 40
31 30 37 42 46 45 44 44 47 45 44 45 46 46 44 44 43 41 41 40 39 39 40 40 41 41 41 41 41 41 40 41 42 44 43 42 40 40 40 39 39 38 40 39
27 27 27 40 48 50 50 37 47 47 45 45 45 34 41 42 41 39 39 39 38 39 39 39 39 41 39 38 39 38 39 40 42 42 41 40 39 39 39 39 39 39 37 35
22 25 33 44 49 50 37 40 47 48 46 45 44 43 41 40 38 39 39 38 39 38 37 37 39 40 38 39 37 39 40 40 42 42 41 40 40 40 39 38 36 32 32 31
27 24 30 48 47 42 45 43 46 47 47 45 41 40 39 39 38 38 37 37 38 37 36 37 38 40 37 37 39 40 41 42 41 41 41 41 37 35 34 32 31 30 28 30
38 37 46 47 46 50 48 47 47 47 46 45 41 39 39 37 36 36 36 35 36 37 36 37 38 38 36 37 41 39 37 35 35 36 35 34 32 32 31 30 26 28 29 29
40 44 44 47 46 46 47 46 48 47 46 45 40 39 36 36 36 35 35 35 36 37 35 34 36 36 35 35 35 34 33 32 32 32 32 31 31 31 29 27 27 30 30 30
39 41 43 46 45 45 43 44 43 43 43 41 39 37 37 35 35 35 34 35 35 35 35 33 34 33 33 33 33 32 32 31 30 29 29 29 30 29 29 30 30 30 30 30
39 46 47 47 44 44 43 41 41 41 38 39 40 37 37 35 35 34 34 35 36 34 33 31 31 31 31 32 31 30 30 29 27 27 26 28 29 29 33 34 35 35 35 33
50 46 41 40 41 42 40 39 40 39 39 37 37 37 36 34 33 35 36 34 33 32 31 30 29 29 29 30 30 29 27 28 26 26 26 26 25 25 23 28 33 33 34 35
43 44 40 40 38 39 39 38 38 37 37 37 36 37 35 35 35 34 33 32 32 32 28 28 28 27 28 28 28 26 26 25 23 23 22 22 20 23 23 24 22 24 30 31
40 41 42 38 38 36 37 37 35 34 34 34 36 36 36 33 32 31 32 33 29 28 27 27 26 25 27 27 27 25 24 22 21 18 19 20 21 21 21 21 20 21 23 23
39 39 39 36 35 35 35 35 33 33 34 34 35 34 33 32 31 31 32 32 27 24 24 19 23 26 26 26 25 23 22 21 19 20 19 19 18 18 19 19 19 18 18 17
34 33 33 33 34 34 35 36 35 34 33 33 32 32 31 30 30 28 26 26 23 22 22 21 22 26 26 25 23 21 19 19 15 17 17 15 14 15 14 14 14 14 14 14
42 40 39 38 36 34 34 33 33 33 32 32 29 28 28 28 27 25 24 23 22 21 22 22 23 24 23 23 21 19 16 15 15 14 13 11 11 12 10 11 10 9 9 11
39 38 37 36 36 34 32 31 31 30 29 28 28 26 26 25 25 23 22 19 18 20 21 22 23 20 21 20 18 15 13 7 9 12 8 6 6 6 5 6 6 4 5 7
35 36 35 33 33 32 30 30 30 29 28 27 25 24 23 22 21 19 19 19 21 22 22 21 20 19 18 17 13 14 8 1 7 4 1 2 -5 -6 -5 1 2 1 1 3
32 32 30 30 29 30 30 30 28 27 28 26 25 23 22 20 18 17 18 18 21 21 21 18 17 16 17 12 13 -2 -0 -5 -5 -4 -10 -11 -12 -8 -8 -8 -7 -4 -2 -0
31 30 29 29 28 27 27 27 27 25 24 21 20 20 19 19 16 17 13 19 21 14 16 15 15 7 10 7 8 -4 0 -2 -4 -7 -10 -12 -15 -15 -12 -11 -9 -6 -4 -4
31 30 29 28 27 26 26 24 24 23 21 20 19 19 20 20 19 15 15 19 18 12 15 9 4 2 -1 -7 -8 -11 -9 -10 -12 -13 -14 -19 -19 -20 -15 -11 -9 -9 -8 -6
29 29 27 27 27 26 24 25 25 22 20 21 17 17 19 14 12 17 15 8 5 3 3 -2 -0 1 -5 -11 -12 -14 -14 -16 -17 -19 -13 -16 -22 -22 -17 -16 -13 -10 -9 -7
28 27 27 27 27 26 25 25 24 24 23 23 22 22 21 19 15 13 11 10 10 6 1 -4 -2 -6 -13 -15 -15 -15 -15 -17 -19 -20 -19 -22 -21 -20 -18 -17 -16 -14 -10 -9
26 25 25 25 24 24 24 24 21 20 20 18 17 16 15 15 14 13 10 7 6 2 -2 -9 -11 -14 -15 -13 -15 -16 -11 -10 -16 -18 -19 -21 -23 -18 -19 -17 -17 -15 -13 -11
23 23 22 21 21 21 21 21 20 17 17 17 17 15 14 12 10 10 5 3 -1 -7 -11 -10 -13 -11 -13 -16 -16 -14 -12 -13 -17 -14 -22 -25 -25 -24 -22 -20 -18 -16 -14 -12

GFSNGP_sfc_temp_033.txt.gz
Temp
49 51 52 52 51 49 49 50 46 50 48 56 60 61 62 59 60 61 60 59 59 59 60 60 60 59 59 58 56 56 56 56 55 54 55 54 52 49 48 49 49 48 50 48
46 48 49 48 51 50 50 49 49 50 49 59 60 59 57 56 57 55 55 56 57 58 58 58 58 59 57 56 55 56 56 55 54 53 54 50 48 46 45 45 45 50 49 47
41 43 46 39 45 49 50 52 53 47 57 57 56 55 55 54 54 52 51 51 52 52 53 54 56 56 56 55 55 54 53 53 52 52 48 46 46 45 44 44 45 44 43 44
37 37 33 52 53 54 53 53 54 53 55 56 55 51 52 55 54 50 49 48 48 49 50 50 52 52 52 53 52 51 51 50 50 50 47 45 45 43 42 44 42 42 44 43
36 38 43 49 51 51 50 55 55 55 54 52 51 53 49 47 49 47 46 46 46 47 47 48 48 49 49 48 48 48 47 47 48 48 46 44 42 41 41 41 43 44 43 41
34 35 34 48 55 55 57 46 55 54 51 50 51 48 52 47 46 44 45 46 45 46 46 46 46 48 47 46 46 44 45 46 48 48 46 45 45 45 43 44 43 40 39 40
33 37 41 51 54 56 44 50 54 54 53 52 51 53 50 45 43 44 44 44 44 45 44 45 47 47 45 45 44 46 47 48 47 47 45 44 43 42 41 40 41 42 41 42
35 35 37 52 52 48 55 53 53 53 54 52 46 44 44 44 42 43 43 43 45 43 43 44 47 46 43 41 45 46 44 42 41 41 42 44 44 43 43 42 40 40 37 40
45 46 53 53 56 56 55 55 52 54 53 49 44 44 43 42 42 42 43 43 44 43 42 43 44 45 42 41 43 43 42 41 41 41 41 41 41 41 41 41 39 38 38 37
46 51 51 52 54 55 55 55 54 56 54 50 46 43 41 41 41 41 43 42 43 42 40 39 40 40 41 41 42 40 39 38 39 39 39 40 41 40 39 38 37 36 36 35
45 49 49 52 53 55 52 51 50 51 51 48 44 42 42 41 41 41 41 41 41 39 37 36 37 36 38 39 39 37 37 36 36 36 36 37 37 36 35 37 35 34 35 35
44 54 53 54 55 50 49 49 49 46 44 45 45 42 42 40 41 40 39 39 38 37 35 34 33 33 35 37 37 36 35 34 32 33 33 34 33 34 33 32 32 32 32 32
53 51 47 44 46 48 46 46 46 45 44 42 42 42 41 39 39 38 39 38 36 33 32 32 33 32 33 34 34 32 31 31 31 30 30 30 29 29 28 31 31 30 30 30
46 48 46 45 45 44 44 43 42 42 42 42 41 41 39 38 37 37 35 34 33 32 32 32 31 30 32 33 32 30 30 26 28 29 28 28 27 26 26 25 24 26 28 27
43 43 46 42 41 39 40 40 38 37 37 38 40 38 38 37 35 33 33 32 32 32 31 31 30 28 31 31 30 28 28 27 26 26 25 24 24 24 24 23 23 23 24 24
40 41 41 40 38 38 39 39 37 36 37 37 37 37 36 35 33 31 30 32 30 28 28 23 26 28 29 30 28 27 26 22 22 23 23 22 21 21 21 20 20 19 19 18
37 35 35 35 36 37 38 39 38 37 36 36 34 34 34 32 30 29 29 27 25 24 24 24 25 28 27 27 26 25 24 22 18 21 20 19 18 18 17 16 17 16 16 16
44 42 41 40 37 36 35 36 36 36 34 33 31 30 29 29 27 26 25 24 23 22 24 24 25 26 25 25 23 22 20 19 20 17 17 15 14 15 14 13 14 13 13 14
40 38 37 36 36 35 34 33 32 31 30 30 30 29 29 28 26 25 25 23 21 21 22 24 23 22 22 21 21 19 17 16 17 16 14 11 12 11 10 10 11 10 10 10
34 34 34 33 33 32 30 30 30 29 30 28 27 26 25 24 23 22 24 23 25 24 24 23 22 20 20 18 17 18 16 14 13 12 10 10 8 7 8 6 7 7 7 8
31 31 31 30 30 30 30 30 29 28 28 28 27 25 23 22 22 21 22 21 22 23 22 20 20 19 19 18 18 15 13 11 10 10 7 6 6 6 5 5 5 5 5 6
30 29 29 28 28 27 28 28 27 26 25 24 23 22 21 21 20 20 21 23 23 20 21 20 19 13 16 14 16 13 12 11 10 8 8 6 5 4 3 3 3 3 3 4
30 30 28 27 26 25 25 25 24 24 23 22 22 23 23 23 23 21 19 21 21 18 19 17 12 9 8 13 12 11 10 8 7 6 6 5 3 2 1 1 0 1 1 2
28 28 26 26 26 26 24 25 25 24 22 22 21 22 23 20 19 21 21 17 16 16 16 14 12 9 7 10 10 9 8 8 7 5 5 -3 3 1 1 -1 -2 -1 -1 -1
28 28 27 26 25 24 25 25 25 25 25 24 23 23 22 21 21 19 18 17 16 15 15 6 7 5 9 8 8 7 7 6 6 4 4 2 1 -1 -0 -1 -3 -3 -3 -3
24 24 23 23 24 25 25 24 22 22 22 20 20 19 19 19 18 17 16 14 14 12 13 10 9 8 8 7 7 5 5 6 5 4 1 1 0 -1 -2 -4 -5 -5 -4 -4
20 21 20 19 20 20 20 21 21 19 20 20 19 18 17 16 15 15 12 13 12 10 9 9 8 6 7 6 5 5 5 5 1 3 2 -1 -2 -2 -5 -6 -6 -6 -6 -6

GFSNGP_sfc_temp_036.txt.gz
Temp
62 64 64 62 62 62 59 60 54 59 61 66 71 73 75 72 71 71 70 70 71 72 73 72 70 70 70 68 67 66 66 66 64 63 64 63 62 61 60 58 55 50 48 49
55 62 60 58 62 64 62 63 62 63 62 73 75 74 72 69 67 67 66 67 68 69 70 68 68 69 66 65 64 65 65 64 63 61 61 59 57 54 50 48 48 47 46 49
49 54 54 46 56 61 62 65 63 57 66 73 71 70 70 68 66 64 63 63 64 65 65 66 66 66 65 64 64 63 62 61 60 60 58 56 52 49 47 45 47 45 46 48
48 42 36 60 66 67 63 66 68 67 70 71 71 70 66 68 65 62 61 61 62 63 63 63 64 63 63 63 62 60 59 58 58 57 55 54 52 48 46 46 44 44 46 49
42 45 55 56 59 60 59 62 70 68 71 71 66 63 59 61 64 61 60 59 60 61 61 61 61 61 61 60 59 58 56 56 56 55 53 52 50 48 48 50 50 50 47 47
43 43 38 59 68 69 67 55 72 71 69 66 62 55 65 58 57 56 58 59 58 59 59 59 59 60 58 57 56 54 54 55 55 55 54 52 51 50 51 52 48 45 42 41
46 44 54 64 65 67 51 57 70 72 70 65 60 67 63 58 56 57 57 56 57 58 56 57 58 58 55 54 52 54 55 55 54 53 51 50 48 47 47 48 49 48 47 48
48 41 41 64 61 58 67 67 69 68 69 65 62 58 56 56 54 54 54 55 56 54 54 56 57 56 54 52 53 52 49 46 44 46 48 51 50 51 50 50 47 46 44 45
53 56 67 65 69 70 70 71 66 68 68 66 57 56 56 54 54 54 55 55 55 54 52 54 55 54 50 49 50 48 49 49 49 49 49 49 49 48 49 48 46 44 43 42
53 65 64 65 69 67 68 68 69 70 68 62 58 56 55 54 53 53 55 54 54 51 49 48 50 51 50 50 51 49 47 47 47 45 46 47 49 47 46 43 41 40 40 39
57 64 59 63 66 70 66 65 64 68 66 63 60 56 55 53 52 54 54 52 52 49 47 46 48 47 49 49 49 46 45 44 43 43 44 44 44 42 40 40 35 35 36 36
54 67 65 70 72 69 65 62 64 65 62 63 60 56 55 53 53 52 50 50 48 47 45 44 44 44 44 46 47 45 42 41 39 40 41 42 41 42 31 31 31 30 30 31
63 59 62 58 59 68 64 65 64 62 62 59 59 56 54 52 51 47 49 48 46 45 42 41 41 38 42 42 42 41 40 38 38 37 38 37 37 36 35 35 31 30 29 28
56 54 55 54 58 58 60 60 56 61 60 58 55 54 52 49 47 48 47 47 44 40 39 40 38 38 40 41 39 37 35 30 37 37 36 36 35 34 34 31 29 31 31 28
51 51 50 52 53 52 54 52 51 51 51 51 52 50 48 45 46 46 44 42 40 38 38 38 36 36 39 39 38 36 36 35 34 33 31 30 31 31 31 29 28 29 29 29
48 50 49 48 46 47 48 48 49 47 47 47 46 45 47 46 43 41 39 37 34 34 36 30 32 35 37 37 36 35 30 25 28 31 30 30 29 28 28 27 26 26 26 24
45 43 43 43 44 45 47 48 47 45 44 44 43 43 42 39 37 33 30 28 27 27 29 29 32 34 33 34 34 35 33 29 23 29 28 27 26 25 25 24 23 24 23 22
50 50 49 49 45 43 43 43 43 41 41 41 34 32 31 30 28 27 26 25 25 26 28 29 30 30 31 30 30 29 27 27 26 25 25 24 23 23 22 21 21 21 20 20
46 45 44 44 43 41 40 37 34 33 32 31 31 30 29 28 27 26 26 24 23 24 25 27 25 26 26 24 26 26 24 23 24 24 23 18 21 20 20 18 18 18 18 18
37 38 37 35 34 33 30 31 31 30 31 30 29 27 26 26 26 25 27 27 28 26 27 25 25 24 23 21 21 24 22 21 21 21 19 19 18 17 17 15 14 16 16 16
31 31 30 30 30 30 31 31 30 29 30 30 28 26 24 25 25 25 25 23 23 25 24 24 25 24 24 24 24 22 21 20 19 18 17 16 15 15 14 14 14 14 14 14
30 29 29 29 28 28 29 29 29 27 26 25 25 24 23 23 23 23 25 25 24 24 25 24 23 18 20 17 22 21 20 18 18 17 16 15 14 13 13 13 12 12 12 12
30 29 28 27 27 26 27 27 26 26 25 26 25 26 25 26 27 26 23 25 25 23 24 22 17 15 14 20 19 18 17 15 15 15 14 14 13 12 11 11 10 10 10 10
28 28 27 28 28 27 25 26 26 26 25 25 25 26 27 25 24 26 25 22 20 21 20 19 17 13 13 18 17 16 15 15 14 14 14 9 12 11 11 9 8 9 8 8
28 28 28 28 27 27 27 27 27 27 26 26 26 26 26 26 26 23 23 21 19 20 21 13 12 11 17 17 16 14 14 14 14 13 12 12 11 10 10 9 7 7 5 5
25 24 24 25 25 27 27 28 26 26 27 25 24 24 24 23 23 22 21 19 19 17 20 19 18 16 16 15 14 14 13 14 13 12 11 10 10 9 8 7 5 5 5 5
21 23 24 23 23 24 24 24 23 22 23 23 23 23 23 22 20 21 19 20 19 18 18 17 17 15 14 14 14 14 13 13 11 10 9 9 9 8 7 5 4 4 3 2

GFSNGP_sfc_temp_039.txt.gz
Temp
63 66 67 65 64 65 62 63 55 60 62 69 74 76 78 78 78 78 78 79 80 80 78 77 76 75 76 74 73 73 71 71 67 64 64 61 58 57 57 56 56 51 51 50
57 65 65 62 66 67 66 66 65 66 65 77 78 80 77 78 76 75 76 76 76 78 77 75 74 74 71 70 69 70 69 69 67 67 66 64 63 62 60 54 53 49 48 46
49 61 60 51 61 64 66 69 67 59 68 76 75 76 76 77 77 75 73 73 73 74 73 72 72 71 69 68 69 69 67 66 65 64 62 60 58 56 53 51 52 48 49 46
48 48 39 59 71 71 66 69 72 71 73 75 77 79 78 78 77 72 71 70 70 70 69 70 71 70 69 69 67 65 64 63 62 61 59 58 57 54 53 51 49 46 46 47
44 47 55 61 67 66 64 64 73 72 74 77 79 74 69 73 75 71 69 69 70 70 69 68 68 68 67 65 64 63 61 60 60 59 57 56 53 52 52 52 51 50 51 49
49 43 39 58 70 75 74 56 74 75 74 74 74 59 69 69 70 68 68 68 67 67 67 66 66 67 64 62 61 59 59 59 59 59 57 55 52 50 51 50 49 50 48 45
46 46 54 68 74 77 53 57 75 76 76 74 70 71 72 67 65 67 67 66 66 66 65 65 65 64 61 60 58 59 59 59 58 57 54 53 52 52 51 51 51 50 49 51
48 45 41 71 70 61 68 74 75 76 76 73 75 69 66 64 64 64 64 63 65 63 62 63 64 62 60 58 59 58 56 54 52 52 52 55 54 54 53 52 50 48 47 47
56 56 67 70 70 75 78 76 76 75 77 75 70 66 64 63 63 63 63 63 64 62 60 61 62 62 57 55 55 53 53 53 53 54 54 54 53 52 52 51 48 45 44 43
57 64 68 70 72 76 77 76 78 77 77 75 68 66 64 63 62 62 64 63 62 59 57 57 59 58 55 55 56 54 52 52 52 51 50 51 52 51 48 45 43 42 41 40
59 64 68 71 72 74 76 75 74 75 75 73 69 66 64 63 62 63 63 62 60 57 55 54 55 54 56 55 55 51 50 49 48 47 48 47 46 44 42 37 36 37 36 36
52 64 62 67 72 72 74 74 72 72 72 71 69 66 65 63 63 62 60 58 57 55 53 53 53 52 53 54 53 49 46 46 44 44 45 46 45 38 32 33 31 30 30 30
63 67 65 68 67 69 72 74 73 71 73 69 69 67 65 62 61 54 58 56 54 53 51 51 49 48 49 50 49 47 44 42 40 41 42 41 41 40 40 32 31 30 29 28
69 62 58 63 65 63 67 71 65 71 71 70 67 66 63 60 57 56 54 54 53 50 48 46 44 41 44 46 44 42 40 33 42 41 40 40 39 37 38 35 32 34 30 29
58 58 58 57 59 59 61 61 61 63 65 64 64 61 59 56 53 54 54 52 48 45 43 42 38 38 42 44 42 40 39 38 38 36 34 33 34 34 34 33 31 31 32 31
56 56 57 55 58 56 56 56 57 57 57 57 56 56 56 54 54 49 46 44 39 37 35 31 33 36 39 39 38 34 30 29 32 34 33 33 32 31 31 29 29 29 29 28
51 53 54 52 52 51 52 54 55 53 53 52 52 50 50 42 37 32 30 31 28 27 28 28 29 32 35 37 38 37 35 31 26 32 31 30 29 28 28 27 26 27 26 24
52 53 53 54 52 50 49 50 49 48 46 44 35 34 32 29 27 26 26 26 25 24 25 26 30 32 32 32 32 31 30 29 29 28 28 26 25 26 26 25 24 24 24 24
41 41 42 44 45 41 37 34 33 33 33 32 31 28 27 26 25 25 25 24 23 22 23 25 26 27 26 26 28 28 26 26 26 26 25 21 23 24 23 22 22 21 22 22
33 33 33 32 33 33 31 31 31 30 30 29 28 26 25 26 26 26 26 25 26 24 26 26 26 26 24 23 24 26 25 24 24 24 23 20 22 20 20 19 19 20 20 20
29 29 29 29 29 30 31 31 31 30 30 29 27 26 26 26 25 25 23 21 22 24 25 25 26 25 25 25 26 24 23 22 21 21 20 20 19 20 19 19 19 18 18 18
30 29 29 29 28 28 29 29 28 27 26 26 26 25 24 24 24 25 25 23 23 25 26 26 24 20 22 20 25 23 22 22 20 20 19 19 18 17 17 17 16 16 16 16
29 29 28 27 27 27 28 28 28 28 27 27 26 26 26 26 27 24 22 25 26 26 26 23 19 18 17 22 22 21 20 19 19 18 18 17 17 16 15 15 15 14 14 14
29 29 28 28 28 27 25 26 27 26 25 25 25 27 27 26 25 26 26 23 22 23 22 20 19 16 15 21 20 19 18 18 18 17 17 16 16 15 15 14 13 13 13 12
26 27 27 28 27 27 28 28 28 28 27 27 26 27 27 28 26 24 24 22 22 23 22 16 16 15 19 19 18 17 17 17 17 16 14 14 14 13 13 13 12 12 10 9
27 26 26 26 26 27 28 28 26 26 27 26 25 25 25 26 25 24 23 22 22 21 20 20 19 18 18 18 17 16 16 16 15 15 14 13 13 13 12 12 11 10 9 9
24 25 26 25 25 25 24 24 23 22 22 24 24 25 25 24 23 23 22 22 21 20 20 19 19 18 17 15 15 15 16 15 14 13 12 11 11 11 11 10 9 8 7 6

GFSNGP_sfc_temp_042.txt.gz
Temp
61 64 64 62 62 63 60 60 53 58 60 66 71 67 65 73 77 78 78 78 78 78 76 76 74 74 75 72 68 70 69 65 60 59 59 57 56 55 54 53 53 51 49 48
54 62 63 58 64 65 64 64 64 64 63 74 75 68 69 72 77 75 76 77 78 78 76 74 73 73 71 67 67 68 66 61 61 61 59 57 55 54 53 51 49 48 48 46
46 57 56 47 58 63 64 68 66 58 66 73 72 73 71 74 77 76 75 75 75 75 74 72 72 69 67 66 67 66 64 64 63 62 59 56 55 53 49 48 47 45 45 46
44 44 37 57 69 68 64 67 69 69 71 74 74 77 78 78 75 74 74 73 72 72 70 70 69 68 66 67 65 63 62 62 61 58 56 55 54 51 48 47 45 45 44 45
41 43 52 58 64 62 60 60 70 69 72 75 77 76 71 75 75 73 71 70 70 70 69 68 66 66 65 64 63 61 60 59 59 57 55 53 50 48 47 47 46 45 46 47
43 39 36 53 65 72 70 52 71 72 70 72 74 56 66 71 72 70 71 70 68 68 67 66 65 65 62 61 60 58 58 58 57 56 54 51 50 48 48 49 48 48 46 44
41 40 49 63 68 71 49 53 72 72 72 71 67 70 71 70 69 70 69 68 67 66 64 64 64 63 60 58 56 58 58 58 57 55 51 49 48 48 48 47 46 43 42 43
42 39 37 66 65 57 64 68 72 71 72 69 71 68 67 67 66 66 66 66 66 63 62 63 63 61 58 56 58 58 56 54 52 50 51 52 49 48 49 46 42 40 38 37
46 46 52 56 64 69 71 69 72 71 75 73 69 66 66 64 64 65 65 64 65 62 60 61 62 60 56 55 56 53 51 50 50 51 52 52 48 46 45 43 38 35 33 33
46 53 55 55 65 70 72 71 74 76 76 73 68 66 64 64 63 63 64 63 63 60 58 57 60 59 55 54 53 52 50 49 49 48 48 47 48 46 41 36 34 33 32 31
52 57 61 64 65 65 70 72 73 74 72 70 71 67 65 63 62 63 62 62 61 58 57 56 56 54 55 54 54 50 48 47 45 43 44 41 36 37 32 31 31 30 29 30
48 60 57 61 65 68 66 66 70 70 69 71 72 68 66 63 63 62 61 60 58 57 55 54 54 53 53 53 52 48 45 42 38 38 38 41 36 32 33 32 31 31 30 29
59 63 63 62 64 67 65 65 68 70 70 69 70 68 66 62 61 56 60 58 55 53 52 52 50 49 50 49 47 44 39 40 36 35 35 35 34 32 28 30 31 31 30 29
61 61 61 61 58 59 61 61 64 67 69 69 68 67 64 61 59 59 56 56 54 51 49 47 44 41 43 43 40 36 36 35 36 35 35 34 34 33 32 30 26 25 29 29
55 58 57 58 58 60 61 61 59 61 64 64 64 62 60 58 55 55 55 53 50 46 43 41 39 39 41 41 39 36 35 35 33 31 29 30 31 30 30 29 28 27 27 26
54 56 57 55 56 56 56 56 55 58 58 56 57 57 57 55 51 46 45 43 39 36 34 30 32 34 36 34 32 30 28 29 31 30 30 30 29 29 28 27 26 26 25 24
45 46 48 49 52 50 51 52 53 52 51 45 43 38 34 31 29 29 29 29 28 27 27 27 29 32 32 33 31 30 27 25 27 29 28 27 27 26 26 25 24 24 23 16
44 43 42 44 47 44 38 37 36 37 36 34 31 29 28 27 25 24 25 25 24 24 25 26 25 25 25 26 27 28 28 28 27 25 26 25 23 24 23 23 23 22 21 21
35 34 34 34 35 34 32 31 31 31 30 29 27 25 25 25 24 24 24 23 21 20 22 24 24 23 23 24 27 25 24 24 25 25 23 20 21 23 21 21 20 19 19 19
30 31 31 30 31 31 29 29 29 28 27 27 26 24 24 25 25 24 24 22 22 22 24 23 23 22 21 22 25 24 23 22 23 22 21 19 19 19 18 19 18 18 17 17
28 28 27 27 27 27 27 27 27 25 26 27 25 24 23 24 24 23 21 19 22 23 23 23 23 23 24 24 25 23 22 20 20 20 19 19 18 18 18 17 17 16 15 15
28 27 27 27 26 26 27 28 27 26 26 25 25 25 24 23 23 22 23 21 23 23 23 22 21 19 20 19 22 21 20 20 19 19 18 18 17 16 15 15 14 14 13 11
28 27 27 26 25 25 26 25 25 25 25 25 24 24 23 24 26 22 20 24 24 23 21 19 18 18 17 19 20 20 19 18 18 17 17 16 16 14 13 13 12 11 10 11
28 28 27 27 27 27 24 25 26 26 25 25 24 24 25 23 22 23 23 22 21 20 19 18 17 16 13 19 19 18 17 16 16 16 15 14 14 14 13 11 10 10 9 9
25 26 26 26 26 26 26 27 27 26 26 25 25 25 25 25 23 23 22 21 21 21 18 15 15 15 18 18 17 16 16 15 14 12 13 12 12 11 11 11 10 9 7 4
26 25 25 25 25 25 25 25 23 23 25 23 23 24 24 24 24 23 22 21 20 20 19 19 17 16 16 15 14 14 14 14 14 13 11 11 10 9 9 10 9 7 7 5
23 24 24 23 24 23 23 21 20 20 20 21 20 22 22 22 21 21 19 19 19 18 17 17 17 15 15 13 14 13 13 13 12 10 10 9 9 8 8 7 7 5 4 3

GFSNGP_sfc_temp_045.txt.gz
Temp
55 57 57 57 57 57 54 55 46 48 51 57 61 62 62 64 64 66 69 68 67 65 65 65 65 64 63 62 64 63 63 59 56 55 55 54 55 54 54 54 52 51 50 49
46 55 58 53 57 58 58 55 55 57 55 65 66 62 62 66 66 65 70 69 69 67 66 65 65 62 61 61 59 61 58 57 56 56 55 55 54 52 51 49 49 48 47 46
41 49 49 41 51 56 56 60 58 49 57 63 63 66 62 64 68 68 68 67 68 66 66 65 63 62 58 59 60 58 57 58 58 57 55 53 52 50 48 47 46 45 44 44
33 41 32 51 61 60 57 60 62 61 62 63 64 67 65 67 66 66 65 65 64 63 61 61 61 60 60 59 58 57 56 56 55 53 51 50 50 48 46 45 42 39 40 41
35 38 44 50 57 55 53 53 62 60 62 63 65 62 58 66 64 62 62 61 59 59 59 58 59 58 58 57 57 56 54 53 52 51 49 47 44 42 42 41 40 40 41 40
32 33 32 46 57 63 62 45 62 62 60 60 60 47 54 62 63 60 60 60 59 58 58 58 55 57 56 53 53 52 52 52 52 51 48 45 43 42 42 41 42 42 42 42
31 32 37 54 61 65 44 45 62 64 62 60 57 56 60 60 60 60 60 59 58 58 56 54 55 56 52 50 49 51 52 52 51 49 46 45 44 44 43 43 45 41 38 37
35 32 31 53 55 49 50 58 63 63 62 59 60 59 60 59 59 59 58 58 57 55 54 53 55 54 50 49 52 51 50 48 46 46 47 47 44 43 43 40 37 34 32 30
39 38 49 52 53 54 55 54 61 61 65 63 58 58 58 57 57 57 57 55 56 54 52 53 53 54 50 48 49 48 47 46 46 46 46 45 41 39 39 37 33 31 32 29
43 49 52 55 54 57 57 59 61 64 62 59 59 57 55 56 55 55 54 53 53 52 51 49 52 52 49 49 48 47 45 44 42 41 41 40 40 38 34 30 30 30 30 28
45 52 55 55 54 56 58 59 62 61 60 63 59 57 57 54 54 53 54 53 53 49 48 47 49 48 49 48 48 45 43 42 40 36 34 33 33 31 29 29 30 28 27 28
37 53 52 55 56 59 59 60 62 59 59 64 59 58 57 54 53 53 51 51 51 48 47 47 47 46 46 46 45 42 39 37 33 33 32 33 31 29 32 32 32 32 31 28
48 53 57 58 55 57 57 57 59 58 58 61 60 57 56 53 52 48 51 50 48 46 45 44 40 38 40 41 40 37 34 35 33 32 32 31 29 28 25 28 31 31 30 30
51 52 51 51 50 54 55 56 56 57 58 58 61 58 54 52 51 51 48 47 46 41 38 37 36 35 37 37 36 34 33 32 32 31 31 31 30 28 27 26 24 25 29 28
45 51 50 52 53 52 53 53 52 52 52 52 54 53 52 50 47 46 44 41 39 35 33 33 32 31 32 32 32 31 31 29 28 27 28 28 28 28 28 27 25 24 24 25
44 46 47 47 48 46 43 43 42 38 37 35 35 35 36 35 33 33 34 33 29 27 29 27 29 31 31 30 29 28 27 28 27 27 26 26 26 26 26 25 25 24 23 21
38 37 38 38 37 37 36 36 35 33 32 31 31 31 30 28 27 26 26 27 26 25 25 25 24 27 28 28 27 25 24 25 25 25 24 24 24 23 24 23 22 22 20 17
36 35 36 36 34 33 31 31 30 29 28 28 27 26 25 24 23 23 23 23 22 21 22 22 24 24 24 25 25 25 24 24 23 22 24 21 21 22 22 21 21 20 19 17
31 31 31 31 31 29 28 27 27 27 26 26 25 23 23 23 22 22 22 21 20 19 20 22 23 22 23 24 23 23 22 22 22 22 21 19 19 20 19 18 17 17 17 17
28 29 28 27 27 27 26 26 26 25 25 24 23 22 21 21 21 20 21 19 20 21 22 22 22 21 21 22 22 22 21 20 20 20 18 17 17 15 15 16 16 15 13 13
25 26 26 25 25 25 25 25 25 24 24 25 24 22 22 22 22 21 19 18 21 22 22 21 21 19 19 21 22 20 19 18 18 17 15 14 14 13 11 11 12 11 10 10
25 24 24 24 23 23 24 25 25 24 24 24 23 22 21 20 20 20 21 20 22 21 19 19 18 17 17 19 20 18 18 17 15 14 11 9 7 5 6 6 5 5 3 1
25 25 25 24 23 23 24 24 23 23 22 22 22 21 21 22 22 19 18 22 20 18 18 17 16 15 14 17 16 14 12 10 8 7 9 11 11 8 4 2 4 2 -3 -1
24 25 25 26 26 25 22 24 24 23 22 22 21 22 22 20 19 21 20 19 17 16 15 13 14 13 11 12 12 10 7 6 6 4 4 3 -2 -0 4 2 1 2 1 -1
22 22 22 22 22 22 22 22 23 23 23 22 22 23 22 21 19 19 18 17 18 15 11 10 10 10 9 6 5 5 4 9 9 6 6 3 -0 -6 -6 -3 2 1 -1 -2
22 21 21 21 19 19 19 19 16 17 20 17 18 18 17 18 18 19 17 15 15 14 13 11 12 9 8 3 -2 -1 -3 -1 3 4 -1 -5 -7 -7 -5 -1 -2 -2 -5 -8
16 17 18 17 18 18 15 14 13 12 12 13 14 14 13 13 12 11 7 8 9 5 3 1 3 4 5 2 -0 0 -3 -4 -4 -1 -4 -9 -11 -12 -5 -3 -7 -11 -14 -15

GFSNGP_sfc_temp_048.txt.gz
Temp
50 54 55 54 56 54 50 48 42 47 47 56 57 59 61 62 62 63 65 64 63 61 64 63 62 62 65 66 66 66 64 64 62 61 61 59 57 55 54 53 53 52 52 50
43 52 53 51 53 55 55 53 51 53 50 60 64 60 57 62 63 63 63 65 65 64 62 63 62 60 60 60 64 64 63 63 61 58 58 55 55 54 53 51 51 50 49 47
34 46 47 39 50 53 52 54 54 45 53 60 59 61 59 61 62 63 63 64 63 64 64 63 61 60 57 58 59 61 61 59 56 56 55 54 53 51 49 48 48 46 45 45
31 37 33 49 58 58 54 56 56 57 59 60 60 63 63 63 65 63 62 63 62 62 61 58 57 56 55 56 56 56 56 56 55 54 52 51 50 48 47 47 46 44 43 44
30 32 42 47 53 52 51 53 58 58 60 61 62 58 57 63 62 63 63 62 62 60 57 56 57 56 55 54 54 53 52 53 52 51 49 48 46 46 45 44 43 42 43 43
32 29 27 43 54 60 57 41 57 58 59 59 57 45 52 61 61 60 59 59 56 54 55 55 53 55 53 51 51 49 49 49 50 49 48 44 42 41 41 42 41 40 38 38
31 30 36 48 52 57 43 43 51 57 58 55 53 54 59 58 58 58 57 57 55 56 55 53 54 54 51 50 48 49 49 48 47 46 44 43 41 41 40 40 40 38 35 34
32 31 31 51 52 45 47 48 52 55 54 54 57 59 55 57 56 56 55 54 54 53 52 51 54 53 49 48 49 50 48 46 44 43 44 44 42 41 42 41 36 33 31 29
38 38 50 52 52 54 53 50 53 52 56 56 56 55 56 55 55 56 55 52 52 52 48 48 50 52 48 45 47 45 45 43 43 44 43 42 40 38 38 37 34 30 29 26
41 48 50 53 53 55 55 54 56 57 58 57 55 56 55 53 52 52 52 51 51 50 48 45 48 48 46 46 46 45 42 41 40 38 36 36 36 35 33 30 30 30 29 26
43 49 51 52 54 56 56 58 57 57 56 57 57 56 55 53 52 52 51 50 51 49 47 44 45 45 46 45 45 41 40 37 34 33 32 30 29 29 29 30 30 30 28 28
37 45 45 50 54 55 56 57 57 55 55 56 57 57 56 54 52 52 50 49 47 45 44 43 44 43 43 43 43 39 35 33 30 30 30 30 29 28 32 32 32 32 30 28
41 45 47 48 51 53 54 54 55 55 55 54 57 55 54 51 50 45 49 47 45 41 39 38 37 36 39 39 38 35 32 32 30 30 29 28 29 28 25 29 31 31 30 29
44 46 45 47 46 48 49 51 50 47 46 44 47 54 49 48 47 45 42 39 38 37 35 33 32 32 36 36 35 33 32 32 31 30 30 29 28 27 27 26 24 24 28 28
41 43 43 44 42 41 42 43 39 37 37 36 36 41 44 40 37 36 36 36 34 32 31 30 29 29 32 33 32 30 29 28 28 27 27 27 27 27 27 26 26 25 25 25
41 40 40 37 36 36 35 35 33 32 32 31 30 30 29 29 28 27 28 30 28 26 27 27 27 28 29 29 28 28 27 27 27 26 26 25 25 25 25 24 23 23 23 21
35 33 35 35 33 31 30 31 31 29 28 28 28 28 28 27 25 24 24 24 23 23 24 24 24 26 27 26 25 25 25 25 25 25 24 24 23 23 23 22 21 21 19 18
33 32 32 31 30 29 28 28 28 27 26 27 26 25 23 22 21 21 21 21 21 20 21 22 24 24 24 25 25 24 23 23 23 23 22 20 21 21 21 20 20 19 18 18
29 28 28 28 28 27 26 26 25 25 24 24 23 21 21 21 21 21 21 20 18 17 18 21 23 22 23 23 23 22 21 21 22 21 20 19 18 19 18 17 17 17 17 17
26 27 26 25 26 25 24 25 25 24 24 23 22 20 19 19 20 19 19 18 19 19 21 20 21 20 21 22 22 21 20 19 19 19 18 17 16 15 15 16 15 14 12 12
23 23 23 23 23 24 24 24 23 22 22 22 21 19 19 20 20 20 18 16 18 19 19 19 19 19 20 21 20 18 18 16 16 15 14 13 12 11 10 10 9 8 7 7
23 23 22 22 22 21 22 22 23 22 21 21 21 21 20 19 20 19 19 17 18 18 17 17 17 17 18 18 17 15 15 14 13 12 10 10 9 8 7 5 4 3 3 -3
24 24 23 22 21 21 22 21 21 21 20 20 19 18 18 18 19 17 14 18 18 17 16 15 15 15 14 13 12 10 8 7 5 4 3 3 2 3 3 5 4 3 -4 -3
22 22 22 22 23 22 20 21 22 21 20 20 18 18 18 15 16 18 17 14 12 11 11 10 10 10 7 6 5 3 2 3 5 1 0 -2 -8 -11 -11 -13 -9 -8 -5 -3
20 20 20 19 19 18 19 21 20 20 19 18 18 19 18 18 14 13 13 14 14 11 10 7 5 3 1 -0 -2 -4 -6 -6 -7 -9 -10 -12 -14 -15 -16 -14 -10 -6 -8 -9
19 18 17 17 16 16 16 16 14 15 15 12 12 12 11 12 13 12 10 7 8 5 3 0 -1 -2 -4 -4 -6 -8 -10 -8 -5 -4 -12 -14 -16 -14 -14 -13 -14 -15 -16 -17
14 15 14 14 14 12 11 10 10 8 5 5 6 6 6 5 7 8 -0 -1 -2 -3 -7 -9 -8 -5 -6 -11 -10 -11 -10 -11 -9 -9 -15 -18 -17 -15 -15 -17 -19 -21 -21 -20

GFSNGP_sfc_temp_051.txt.gz
Temp
41 45 48 49 50 50 48 47 42 45 45 53 55 56 58 61 60 60 61 60 59 58 60 63 63 63 65 64 64 63 62 62 62 62 62 60 59 60 61 59 57 55 52 53
38 45 47 45 50 52 53 49 48 49 47 56 59 59 56 59 60 60 61 61 63 63 61 61 62 62 63 64 64 64 62 62 63 62 59 58 59 60 57 54 54 53 52 51
31 39 38 36 45 50 51 53 52 45 51 57 56 57 57 59 59 60 62 63 62 62 63 62 63 63 62 63 61 60 62 62 61 60 59 59 57 54 53 52 50 48 47 48
30 33 28 42 50 54 52 54 55 56 57 58 57 60 60 59 59 59 62 63 61 60 61 64 60 56 54 56 57 59 58 58 58 58 58 54 53 51 49 48 47 45 45 45
26 30 37 43 50 46 42 44 55 56 57 60 60 54 56 61 59 60 61 63 62 60 57 56 55 53 54 56 56 56 56 55 54 54 51 51 48 47 46 45 44 45 44 45
31 28 25 40 53 56 54 40 51 51 51 55 55 43 52 60 59 59 59 58 57 54 54 54 52 54 53 54 54 53 52 52 52 51 50 48 46 44 45 45 43 42 40 40
29 29 33 44 51 52 38 38 51 52 51 50 49 51 58 56 57 57 55 54 53 54 54 53 52 53 50 49 49 50 51 50 49 48 46 45 42 42 42 42 41 36 33 34
33 29 26 50 47 40 45 48 50 52 52 50 51 52 53 54 54 54 54 52 52 51 48 49 51 51 47 45 47 47 45 45 44 44 44 43 42 41 41 39 35 32 30 29
35 35 47 48 49 51 51 50 52 51 53 52 51 52 53 53 51 50 50 49 49 50 47 47 49 50 46 44 45 44 43 42 43 43 41 40 38 38 35 34 33 31 30 27
39 49 50 52 52 54 54 53 55 56 55 54 51 52 53 52 51 50 49 49 47 47 46 44 46 46 45 45 45 43 41 39 38 36 34 34 34 35 33 32 32 31 29 26
39 43 45 52 50 52 54 55 55 57 55 55 54 54 53 52 50 48 49 47 47 46 44 43 44 43 44 44 43 39 36 35 33 31 30 30 31 32 31 32 34 30 28 26
34 41 40 42 48 49 52 52 52 51 53 54 54 53 55 52 50 48 46 45 45 43 43 42 42 41 41 42 40 36 33 32 30 29 29 30 29 29 32 32 32 32 31 29
40 42 42 46 47 45 46 45 45 43 41 39 42 47 51 47 45 42 43 41 39 38 37 37 36 35 36 37 36 34 31 31 30 30 29 28 28 27 24 28 31 31 30 29
43 42 43 42 38 40 40 42 40 38 37 35 37 40 40 38 37 36 34 34 34 32 31 31 31 31 34 34 34 32 32 32 31 30 30 29 29 28 28 26 23 24 27 27
39 42 40 40 39 36 37 37 33 31 31 30 31 30 31 29 29 30 31 31 30 29 29 29 29 29 31 31 31 30 29 29 28 28 28 28 28 27 27 26 25 24 24 24
36 39 39 35 33 33 32 31 29 28 28 28 27 26 26 26 26 26 26 27 26 24 26 25 26 27 28 28 27 27 27 27 27 26 26 26 25 25 24 24 23 24 23 21
33 32 32 32 30 29 28 29 29 28 27 27 26 27 26 25 24 23 23 23 22 22 23 23 23 25 26 26 26 25 24 24 24 24 23 23 22 22 22 22 21 20 19 19
30 29 29 29 27 26 26 26 26 26 25 25 24 23 21 20 19 19 19 20 20 19 20 22 23 23 23 24 24 23 23 23 22 21 20 20 21 21 20 20 19 18 18 18
28 26 26 26 26 25 25 24 24 23 22 22 21 19 19 19 19 18 19 18 17 16 17 21 23 22 22 22 22 22 21 20 20 19 19 18 18 17 17 16 16 16 16 15
24 25 25 24 24 24 22 22 22 21 21 21 20 19 18 18 18 17 17 15 16 17 19 20 20 20 20 20 20 19 18 17 17 16 15 15 14 13 14 14 13 11 10 9
22 22 21 21 21 22 22 22 21 20 20 20 19 18 18 18 18 17 15 13 16 17 18 18 19 18 18 18 18 16 15 14 13 12 10 9 8 8 6 5 5 3 -0 -1
22 21 21 21 20 19 20 21 21 20 19 19 19 19 17 16 16 15 15 14 16 16 17 16 15 14 13 14 13 11 10 9 8 6 3 2 0 -2 -5 -5 -5 -5 -7 -8
22 22 21 20 19 19 20 19 18 18 17 16 15 15 15 15 17 13 10 15 15 13 13 11 9 8 7 6 5 3 2 2 1 -0 -2 -5 -10 -12 -11 -11 -12 -13 -13 -7
20 21 20 20 22 20 17 18 19 18 17 17 16 15 16 13 13 15 13 8 7 8 7 5 4 2 -1 -2 -3 -5 -6 -10 -12 -13 -11 -13 -18 -18 -18 -19 -15 -16 -14 -10
19 18 18 18 17 17 19 18 17 16 15 14 14 15 15 15 10 11 11 9 9 5 2 -3 -3 -5 -7 -10 -13 -15 -15 -14 -14 -16 -18 -19 -19 -20 -20 -18 -18 -17 -18 -19
17 15 14 15 14 14 14 14 11 11 10 8 8 6 7 8 7 6 2 1 1 -2 -5 -11 -11 -11 -12 -12 -16 -17 -15 -10 -13 -15 -18 -19 -20 -18 -19 -18 -21 -21 -23 -24
13 13 12 11 11 9 9 8 6 2 -2 -3 -2 0 2 0 -1 -1 -8 -8 -10 -12 -16 -17 -17 -13 -14 -18 -16 -15 -14 -16 -16 -16 -21 -22 -21 -19 -19 -21 -24 -25 -26 -27

GFSNGP_sfc_temp_054.txt.gz
Temp
42 42 43 41 43 45 43 43 39 43 43 51 56 55 57 59 58 58 59 59 58 57 58 60 60 59 60 60 59 59 58 58 57 58 59 59 59 59 60 60 60 60 59 57
37 44 42 39 43 45 46 46 45 46 45 53 58 57 55 58 57 57 58 60 60 60 58 57 60 60 60 60 60 60 59 58 59 59 58 58 59 59 60 59 59 59 56 55
31 37 39 33 38 41 43 48 48 42 49 56 54 56 55 58 57 58 58 59 60 60 62 61 60 61 60 60 61 59 59 59 59 59 58 59 59 59 58 58 58 54 53 52
30 31 25 41 48 47 43 46 49 50 51 55 56 60 60 58 57 57 57 59 59 60 60 61 60 59 61 58 58 59 59 59 58 57 58 57 58 58 57 53 52 50 48 49
25 26 35 40 47 43 43 43 52 48 50 51 55 55 54 58 57 58 58 58 59 58 57 58 57 56 55 54 55 55 56 56 55 55 56 54 53 51 50 47 47 46 45 44
30 23 22 35 48 51 51 36 48 47 47 48 49 40 52 59 57 58 57 57 58 54 54 54 53 54 54 54 54 54 54 53 53 52 51 50 47 46 45 45 43 42 40 42
30 28 30 42 48 51 34 37 48 48 48 47 44 47 54 54 54 55 55 54 55 53 53 53 51 53 53 54 52 50 50 50 50 49 46 45 43 43 43 41 38 36 34 35
32 29 23 46 46 41 45 47 47 49 50 47 49 51 50 52 52 51 51 50 50 49 48 47 49 50 48 47 48 48 48 46 44 43 44 43 42 41 39 37 34 32 31 30
33 33 43 45 46 51 50 49 51 50 53 51 48 50 51 52 52 50 48 47 47 45 45 45 47 48 44 42 45 45 44 43 42 41 41 41 39 37 36 35 34 32 31 28
34 41 42 45 46 46 47 50 54 55 54 54 50 52 49 50 50 49 47 47 47 45 43 41 43 44 44 43 44 44 40 39 39 37 35 35 35 35 35 34 32 31 29 27
36 39 42 44 44 43 45 49 50 53 52 47 46 46 47 49 48 46 46 45 45 43 41 40 42 42 43 44 42 37 35 34 34 33 33 31 30 31 31 33 34 32 30 29
30 42 40 42 43 42 43 42 43 41 41 40 41 41 46 41 41 42 42 41 40 39 38 37 37 37 38 40 39 36 33 32 31 31 31 31 30 28 32 32 32 31 31 29
40 41 41 43 41 40 39 39 40 37 35 34 36 36 36 32 34 34 33 34 32 32 32 32 32 32 34 35 35 33 31 31 30 30 29 29 28 27 24 27 30 29 29 28
42 40 41 39 36 37 36 37 36 34 32 31 31 31 30 30 30 29 29 30 31 30 30 30 30 29 31 32 31 31 30 29 29 28 28 28 27 26 26 25 23 24 27 28
37 39 39 39 37 34 35 34 31 28 28 27 27 27 27 26 25 26 29 30 29 28 27 28 28 28 30 30 29 29 29 28 28 28 28 28 27 27 26 25 24 23 23 24
35 38 38 33 31 30 30 29 27 26 27 26 26 25 25 25 24 23 24 25 23 21 23 23 24 25 27 27 26 26 26 25 25 25 25 25 25 24 24 23 23 23 21 20
31 31 31 29 27 27 26 27 26 26 26 25 24 25 25 23 22 21 20 21 21 20 21 21 21 23 24 24 24 23 23 22 22 22 22 22 22 21 21 21 20 19 17 19
28 28 27 27 26 25 24 25 25 24 23 23 22 20 19 18 17 17 18 19 19 18 20 21 21 22 22 22 22 22 21 21 20 19 20 19 18 19 18 17 17 17 17 17
27 26 25 25 25 24 23 22 22 21 20 20 18 16 16 16 16 16 17 16 16 16 17 20 21 19 20 21 20 20 19 18 18 17 17 16 16 16 14 14 13 12 12 12
23 24 24 23 23 22 21 20 21 20 20 19 19 17 16 16 16 15 15 13 15 16 18 18 18 17 17 18 18 18 16 15 15 14 13 12 10 8 8 8 7 4 -0 -0
21 21 20 20 19 20 20 21 20 19 19 17 15 14 13 14 15 15 13 12 14 16 16 15 16 15 16 16 15 12 11 9 8 6 4 1 1 -1 -4 -6 -5 -8 -8 -8
20 19 19 19 18 17 18 19 18 17 17 17 17 16 14 13 12 12 12 12 14 13 13 12 11 8 9 9 9 6 6 5 3 2 -2 -4 -8 -10 -14 -14 -14 -14 -16 -13
20 20 19 18 17 17 18 17 16 16 14 14 13 13 13 13 14 10 8 13 12 9 9 5 4 3 2 2 1 -1 -3 -5 -6 -9 -13 -17 -19 -19 -18 -17 -18 -19 -17 -13
19 19 19 20 20 18 15 16 17 16 15 15 12 12 13 10 10 12 10 5 3 3 1 -1 -2 -3 -6 -8 -9 -11 -12 -15 -17 -20 -17 -19 -24 -23 -22 -22 -18 -20 -20 -19
18 18 18 17 17 16 16 15 14 14 13 11 11 12 12 11 5 6 3 2 4 -2 -6 -10 -8 -10 -14 -17 -18 -19 -18 -19 -20 -21 -22 -22 -23 -23 -24 -23 -24 -23 -24 -24
15 13 13 14 13 13 12 12 8 8 8 5 5 3 1 3 2 1 -2 -4 -3 -6 -10 -18 -18 -19 -20 -17 -20 -20 -18 -15 -18 -19 -22 -23 -23 -20 -22 -21 -25 -25 -26 -25
11 11 11 10 9 8 7 7 3 -2 -6 -7 -3 0 -3 -6 -8 -4 -13 -15 -16 -18 -20 -22 -21 -17 -18 -19 -16 -17 -17 -19 -20 -19 -25 -24 -23 -25 -25 -26 -26 -26 -26 -27

GFSNGP_sfc_temp_057.txt.gz
Temp
44 44 44 44 45 47 45 47 42 47 47 56 59 62 66 67 65 66 67 67 66 65 67 67 65 64 65 65 64 64 63 63 62 62 62 63 62 62 62 62 61 63 63 62
39 45 43 41 46 46 48 48 48 50 50 58 59 62 62 64 64 65 67 67 68 68 65 65 66 65 65 65 64 64 63 62 64 64 63 62 63 62 63 63 63 63 63 62
36 39 40 37 43 45 46 48 48 44 51 57 55 56 58 62 65 62 64 65 66 67 68 66 66 65 65 66 65 63 63 63 64 64 63 62 63 63 63 62 63 63 61 61
33 35 29 45 50 51 49 51 52 52 54 55 55 57 59 61 63 64 63 63 65 66 68 70 71 68 67 67 66 64 63 63 63 63 62 63 62 62 62 63 62 60 59 58
31 32 38 46 49 46 47 48 52 50 52 54 56 56 61 61 61 59 61 62 64 66 67 68 67 68 66 64 66 64 63 63 63 62 62 62 61 61 61 54 51 49 48 47
31 29 26 41 50 54 54 41 53 52 52 52 54 48 55 61 58 58 61 61 62 63 63 63 65 64 63 63 63 63 63 64 63 62 61 58 55 52 48 47 44 43 42 42
32 31 35 46 50 53 38 43 54 53 53 53 50 55 59 57 58 59 58 57 57 58 58 57 59 60 60 60 59 55 55 55 53 53 50 47 45 44 43 41 39 36 35 36
35 29 28 49 50 44 46 51 53 54 54 53 55 55 55 57 56 56 55 54 53 53 51 53 55 57 55 50 50 51 49 46 45 45 45 44 43 42 40 38 34 33 32 31
39 39 47 50 48 48 48 46 49 51 56 55 53 53 53 53 54 53 52 52 52 51 49 48 50 53 48 46 47 46 44 43 42 42 42 42 39 38 36 36 34 32 31 30
40 46 46 46 47 46 47 45 46 49 46 46 43 46 47 49 48 48 48 48 50 48 45 43 45 46 46 46 46 44 41 40 39 37 36 37 37 37 35 34 33 32 30 29
40 45 47 45 43 43 45 45 44 45 43 41 40 41 43 41 39 41 41 42 43 42 41 39 41 40 42 43 43 41 39 38 36 35 34 32 31 32 32 32 34 33 31 30
39 43 41 44 42 42 42 40 40 39 39 38 37 36 37 35 35 35 34 35 36 36 35 34 36 37 37 40 41 39 37 36 35 34 34 33 30 29 32 32 32 31 30 30
39 42 42 44 41 40 39 38 38 35 34 32 33 33 33 32 32 32 32 31 31 31 32 32 32 32 32 34 35 35 34 33 31 30 30 29 28 28 25 28 30 30 29 29
41 41 40 38 36 37 37 37 35 34 32 31 31 32 30 30 30 29 28 29 29 29 29 30 29 28 30 32 31 30 30 29 29 29 28 28 28 29 30 27 26 26 28 28
36 39 39 38 36 34 35 35 32 30 29 27 28 28 28 26 25 25 27 28 28 27 26 26 26 25 28 28 27 27 28 28 28 28 28 28 29 29 28 26 25 24 24 24
34 37 36 32 30 29 30 29 27 26 25 24 24 23 24 24 23 23 24 24 22 20 22 21 22 24 26 26 25 25 25 25 25 27 27 27 27 27 27 26 25 24 23 22
30 29 30 28 27 26 25 26 25 25 24 24 23 24 23 22 22 21 20 21 21 20 21 21 21 23 24 24 25 24 24 24 24 24 25 25 25 24 24 23 22 22 21 21
29 28 28 27 26 24 23 24 23 23 21 21 20 19 18 17 17 17 18 19 19 18 19 20 21 21 21 23 24 24 23 23 22 21 22 21 22 22 21 21 21 19 18 17
27 25 25 25 25 24 23 21 21 21 20 19 17 16 16 16 16 16 17 16 16 15 16 19 20 20 20 21 22 22 21 21 20 20 19 18 18 18 17 16 16 16 16 16
23 23 23 22 23 22 20 20 20 19 19 18 17 16 15 15 16 15 15 12 13 14 17 17 18 18 18 17 19 19 17 17 16 15 14 14 13 13 13 11 13 13 13 13
20 20 19 19 18 19 19 19 18 17 17 16 15 13 12 13 14 15 13 11 13 15 15 14 15 16 16 16 16 14 14 12 11 10 10 10 10 10 10 10 10 9 9 9
20 19 18 18 17 17 17 18 18 17 16 16 16 15 14 13 12 11 12 11 13 12 13 13 13 8 10 12 13 11 10 10 10 10 9 8 8 7 6 6 6 6 6 6
20 19 19 17 17 16 17 16 16 15 14 13 12 12 13 13 14 12 9 12 13 10 11 8 5 4 5 8 8 7 7 6 6 5 5 5 5 5 5 4 4 4 4 4
20 19 19 19 19 18 16 17 17 16 14 14 12 12 14 11 11 13 11 6 4 5 5 5 3 0 3 6 6 5 6 5 5 5 5 -1 3 3 3 2 2 3 2 1
18 19 18 18 17 16 16 16 15 14 13 12 12 12 12 13 10 8 9 7 5 6 5 -4 -3 -2 4 4 4 3 3 4 3 4 3 2 1 0 1 1 -1 -1 -1 -2
16 15 15 15 15 15 14 14 12 12 11 8 7 7 6 8 7 8 6 3 5 3 3 2 1 2 2 3 2 2 3 3 3 2 -0 0 -0 0 -1 -2 -3 -4 -5 -5
13 13 13 12 12 12 12 11 10 7 6 7 6 7 5 5 4 5 -1 3 3 2 1 1 1 -0 2 2 2 2 2 2 -5 0 -1 -1 -2 -2 -4 -6 -6 -6 -7 -8

GFSNGP_sfc_temp_060.txt.gz
Temp
49 50 51 51 51 53 52 54 48 54 55 61 65 64 66 70 72 74 76 79 79 78 80 79 77 76 76 75 73 73 72 71 70 69 69 69 69 69 69 68 69 69 69 69
44 49 49 47 52 54 54 55 56 57 56 66 68 69 66 67 70 69 70 75 79 81 81 79 80 78 76 75 74 73 71 71 72 71 70 69 69 68 68 68 68 68 68 68
39 46 46 41 49 53 55 57 57 51 59 65 65 66 66 67 68 67 68 69 72 75 77 78 79 79 78 77 76 73 71 71 72 71 70 69 69 69 68 67 68 68 69 69
39 39 31 50 58 58 55 57 60 59 61 62 63 66 68 68 66 66 66 67 69 70 72 76 79 79 78 80 78 74 73 72 72 71 70 70 69 68 68 68 67 67 67 68
36 38 46 51 54 52 52 54 58 58 60 62 65 65 67 68 66 65 67 68 69 71 72 72 74 76 77 77 78 76 74 73 73 71 70 70 68 68 68 68 67 66 66 66
37 34 31 49 55 59 59 47 60 60 60 60 62 54 64 65 65 65 67 68 66 67 69 70 71 73 73 75 75 74 74 75 74 73 70 70 69 67 67 66 62 50 43 44
36 36 42 54 57 60 43 45 57 59 60 60 58 61 64 65 64 65 65 64 63 64 63 61 63 65 69 73 72 72 72 72 72 71 70 69 64 57 50 43 40 37 36 36
39 34 32 55 55 47 50 56 55 56 58 57 60 61 61 62 61 60 60 61 61 59 56 52 54 60 62 56 56 59 56 52 50 50 49 48 46 43 42 40 36 34 33 32
45 45 53 56 53 54 54 52 52 52 54 54 56 55 56 57 54 54 55 56 56 53 47 46 47 48 47 46 47 46 44 42 42 42 42 43 42 41 40 38 35 33 32 30
46 53 54 53 54 54 54 51 52 52 52 52 51 52 52 51 48 48 44 47 49 46 40 38 41 42 42 45 44 42 40 38 37 37 36 37 38 38 36 34 33 32 31 29
49 54 54 50 49 51 53 52 51 51 49 47 47 48 49 48 45 45 40 40 40 38 35 34 36 36 40 42 41 38 36 35 34 34 32 31 31 32 32 33 34 32 30 30
45 48 48 49 47 48 49 48 47 46 45 46 43 42 40 38 40 38 36 36 36 35 33 32 33 33 34 37 40 36 35 34 34 34 33 32 30 29 31 31 31 31 30 30
48 49 49 50 47 47 45 43 43 42 42 40 41 40 39 34 32 31 31 32 31 31 31 31 29 29 31 32 32 32 31 31 30 30 30 29 29 28 26 29 30 30 30 30
45 46 45 45 43 43 43 41 39 40 40 37 37 36 33 31 30 29 28 29 29 29 27 27 26 27 29 31 30 29 29 29 30 30 30 30 30 31 31 29 27 27 29 29
39 41 39 39 37 35 37 37 34 32 32 31 29 27 27 24 23 24 26 27 27 25 25 26 26 25 27 28 27 28 29 28 29 30 30 30 31 30 29 28 27 26 27 27
40 39 35 32 30 31 31 31 28 26 26 26 25 25 25 25 23 23 24 23 22 22 23 22 23 25 28 29 29 29 28 27 28 29 29 29 30 29 28 27 27 26 26 26
35 32 32 29 28 28 28 28 28 25 25 25 26 26 27 26 24 23 22 22 21 21 22 22 22 24 26 28 29 30 29 28 26 26 26 27 26 25 27 27 24 22 21 23
32 31 31 31 29 27 26 27 26 25 23 23 22 21 20 20 19 19 20 21 21 19 20 21 22 23 24 26 28 29 28 27 27 25 25 25 25 25 24 24 24 22 22 21
31 29 29 28 27 25 24 23 22 21 20 20 19 18 18 18 18 18 19 19 18 17 17 21 22 22 22 23 27 27 26 25 25 24 24 22 22 22 22 22 21 21 21 20
26 26 26 25 24 23 20 20 21 20 20 20 19 18 18 17 17 17 16 14 15 17 18 20 22 21 22 21 23 24 23 22 21 20 20 20 20 19 19 17 19 19 19 18
22 22 21 20 20 21 21 21 19 18 18 18 17 15 15 16 17 19 18 16 16 18 19 18 18 20 21 22 22 20 19 19 18 18 17 17 16 16 16 16 16 16 16 16
22 20 19 19 18 18 19 20 19 18 18 18 17 17 16 16 15 14 14 15 17 15 17 17 16 12 16 17 18 16 16 16 15 16 15 15 15 14 14 13 13 13 14 13
21 21 20 19 18 18 19 19 18 18 16 16 16 17 17 18 20 18 13 16 17 14 16 13 10 10 13 16 15 15 14 13 13 13 13 12 12 12 12 11 12 11 11 10
21 21 21 22 23 22 19 20 20 19 17 16 15 16 19 17 16 18 16 12 10 11 10 9 8 9 12 15 14 13 13 13 13 12 13 9 11 11 10 9 9 10 9 8
22 22 23 22 21 21 20 20 19 19 18 18 17 18 18 19 16 15 16 14 10 14 13 7 7 9 13 13 11 11 12 11 9 11 10 10 9 9 9 9 7 7 6 6
21 21 21 21 22 22 22 22 20 20 19 16 16 16 16 16 16 16 13 11 12 11 12 11 9 11 12 11 11 9 10 11 10 10 7 9 8 8 6 6 5 5 4 4
20 20 21 20 20 20 20 20 18 16 17 16 14 15 15 15 13 14 11 13 12 11 11 11 11 9 9 9 10 10 10 10 6 6 8 7 6 6 4 3 3 3 2 1

GFSNGP_sfc_temp_063.txt.gz
Temp
53 55 56 58 56 57 53 54 48 53 56 63 68 68 67 70 73 75 77 77 80 82 84 85 83 82 82 80 79 77 77 76 74 74 74 73 73 73 73 72 73 73 72 72
44 52 53 51 55 59 58 59 58 59 58 70 71 72 70 70 70 71 71 73 75 76 80 82 84 84 82 81 80 79 76 76 77 75 74 73 73 72 71 71 71 71 71 71
33 47 47 41 51 54 56 61 60 53 61 65 66 68 68 68 67 67 68 69 71 73 75 76 79 81 82 84 82 79 77 76 76 76 74 73 73 72 71 70 71 70 70 70
38 41 28 52 61 62 58 61 63 63 64 65 67 69 72 71 66 66 66 67 69 70 72 74 76 78 79 83 83 80 78 77 77 76 75 74 72 71 71 70 70 69 69 69
36 39 48 52 57 56 55 55 62 61 63 65 67 68 68 69 68 66 66 68 68 68 70 70 71 73 74 77 80 82 80 78 78 77 75 75 73 71 71 71 70 70 70 68
41 34 33 51 60 63 62 48 62 62 61 62 64 56 60 67 68 67 68 68 66 67 66 59 57 61 66 70 74 78 79 82 81 79 77 74 73 71 71 71 69 67 56 47
38 38 46 59 61 62 44 46 59 60 61 61 59 64 66 67 66 67 67 65 64 64 56 48 47 51 63 66 64 67 69 72 76 78 76 75 73 72 68 59 46 40 37 37
40 37 34 60 59 49 53 58 58 59 57 56 59 62 62 64 62 61 61 60 60 58 52 44 43 43 45 46 50 52 54 51 50 50 52 53 52 48 44 41 37 35 34 32
46 46 56 59 56 58 59 56 56 55 57 57 57 57 59 59 57 57 56 56 54 52 46 42 39 39 37 41 43 43 42 40 40 40 40 40 40 39 38 38 36 33 32 30
50 52 55 55 59 59 59 56 57 57 56 55 53 56 55 55 54 53 53 52 49 47 41 38 38 36 36 38 40 39 36 35 35 33 33 34 35 35 35 33 33 32 30 28
51 53 55 55 56 55 57 57 55 56 54 52 51 52 49 49 46 44 45 44 44 42 38 34 35 34 34 35 38 36 35 34 33 32 31 30 30 31 30 31 32 31 30 29
46 52 53 48 54 54 54 52 51 51 50 51 48 46 44 40 37 35 34 35 35 36 35 31 32 31 32 32 33 33 32 32 31 31 32 30 30 29 31 31 31 31 30 30
50 54 54 53 52 52 50 48 48 47 46 46 45 43 39 35 33 32 31 30 31 29 29 29 29 28 29 31 31 30 30 30 30 30 30 28 28 27 25 28 30 30 30 30
50 50 48 45 39 42 45 46 44 43 40 39 39 37 34 30 28 27 26 27 29 28 28 28 28 28 30 31 31 30 30 31 31 30 30 30 30 29 28 26 25 25 28 28
45 46 43 41 39 37 39 39 36 34 35 33 33 32 32 30 28 27 28 29 28 27 27 28 27 27 30 31 30 28 30 31 31 31 31 31 31 30 29 28 27 26 27 27
44 40 39 35 33 32 32 32 30 29 28 27 26 26 27 28 28 27 27 27 25 23 24 24 24 26 29 30 30 30 28 28 29 30 30 29 29 29 28 26 24 23 24 26
38 35 36 35 34 33 32 32 32 30 30 29 28 28 28 28 26 24 24 24 22 21 22 22 22 24 28 29 30 29 28 28 27 28 27 28 27 26 25 24 22 21 21 24
34 33 34 33 31 29 29 29 29 28 25 25 24 23 21 21 21 21 21 22 21 20 22 22 23 24 25 28 29 29 29 28 27 26 26 25 25 25 25 24 24 23 22 22
33 32 31 30 30 28 27 25 23 23 22 21 20 18 18 18 18 18 19 19 19 17 18 23 23 24 24 25 28 28 27 26 26 26 26 25 23 24 24 24 23 23 22 21
28 28 28 26 26 25 22 22 22 21 21 21 20 19 17 18 20 19 19 15 16 19 20 20 23 23 24 24 25 26 25 24 24 22 21 22 21 21 21 19 20 20 19 19
24 24 23 22 21 22 21 21 20 19 19 19 17 16 16 16 16 20 21 18 17 19 20 19 18 22 23 24 24 22 22 21 20 20 20 19 20 19 18 18 18 18 17 17
23 22 21 21 21 21 21 22 21 21 20 20 19 20 20 19 17 16 16 18 19 17 19 18 17 16 19 20 21 20 19 19 19 18 18 18 17 17 16 16 16 16 16 15
23 23 22 21 21 21 21 21 21 20 19 18 18 18 18 19 20 19 15 17 18 15 18 14 12 14 17 19 19 19 18 17 17 17 16 16 16 15 15 13 14 14 14 12
24 24 23 24 25 24 21 22 22 20 18 19 17 18 23 20 19 21 19 16 14 14 12 11 11 12 16 18 17 17 16 16 15 16 16 14 14 14 14 13 12 12 12 11
25 25 25 25 25 24 23 23 23 22 22 22 21 21 21 22 19 18 19 17 13 17 17 11 12 14 16 16 15 14 15 15 13 13 13 13 13 12 12 12 10 9 9 10
26 26 26 26 27 28 27 28 26 25 24 21 20 20 20 20 20 21 17 15 16 16 16 16 14 14 15 15 14 14 14 14 13 12 11 12 12 11 10 9 8 9 8 8
25 25 26 25 25 25 25 25 24 22 22 21 19 20 20 20 17 18 15 17 17 16 16 16 16 13 12 12 14 13 13 13 11 10 10 10 10 10 9 8 7 7 6 6

GFSNGP_sfc_temp_069.txt.gz
Temp
40 44 46 46 41 47 42 41 37 44 45 52 52 53 58 60 61 62 62 62 61 62 60 58 58 58 60 63 65 66 66 64 62 60 61 61 61 62 63 62 63 62 61 61
37 43 44 43 47 50 51 47 43 46 46 52 57 56 57 59 59 58 58 60 61 58 58 56 55 55 57 58 60 63 64 65 66 64 62 61 61 61 62 62 62 63 62 62
29 38 37 34 44 49 49 48 47 40 48 55 54 54 56 55 57 56 56 57 55 54 51 50 48 51 51 57 58 60 57 58 63 64 64 63 62 62 61 62 62 62 62 63
29 33 26 45 53 55 51 52 51 50 52 52 53 56 58 57 55 54 54 54 52 49 47 46 46 47 51 52 52 52 51 53 54 52 54 61 64 63 63 63 62 62 63 64
26 29 37 44 51 50 46 41 52 50 54 53 57 56 53 56 55 52 51 52 49 46 45 44 43 46 47 46 47 47 47 48 49 48 48 51 56 63 64 63 63 62 63 62
28 27 26 44 54 59 53 36 50 54 52 51 54 41 46 53 54 51 51 50 45 44 43 41 41 44 44 43 43 42 43 44 44 44 44 44 46 46 60 62 62 57 43 40
28 27 34 49 55 58 37 37 51 53 52 51 47 49 52 52 50 49 47 46 46 42 38 38 39 41 39 40 39 40 41 40 39 39 40 39 42 43 44 46 42 38 35 34
31 27 26 54 54 42 45 50 50 50 51 49 51 50 47 46 42 42 40 41 41 38 36 36 36 36 35 35 39 38 37 35 35 35 36 36 35 37 38 38 35 33 32 31
35 33 46 50 48 51 51 48 48 47 49 49 47 43 41 39 38 37 37 36 38 35 34 33 34 34 32 34 37 36 34 32 32 33 33 33 31 32 33 34 33 31 31 29
42 45 47 48 51 52 51 49 48 48 47 46 42 40 37 36 34 34 34 33 34 33 31 30 32 33 33 35 36 34 31 30 30 30 30 32 32 31 30 30 29 30 29 29
42 43 43 46 48 47 48 49 47 46 44 43 40 36 34 32 31 31 31 32 31 30 30 29 31 31 32 33 35 33 32 31 30 29 29 29 29 29 29 29 29 28 28 29
34 40 38 39 44 48 45 43 43 42 38 38 37 32 31 28 29 29 28 29 29 29 28 29 30 30 30 31 33 32 30 30 30 29 28 27 26 26 30 31 31 31 31 30
39 41 39 41 44 45 41 40 39 38 37 33 33 31 29 27 28 28 28 26 26 25 25 26 26 28 28 29 29 29 29 28 28 27 26 25 25 24 23 26 29 29 30 30
43 43 37 40 37 42 40 38 37 35 35 33 32 31 28 27 27 26 24 24 24 23 23 23 24 24 28 28 26 27 27 27 27 27 26 26 25 25 24 23 22 23 26 27
40 40 39 39 38 36 37 34 30 28 28 27 28 26 25 22 20 20 22 22 22 22 21 22 21 21 26 28 26 24 25 25 25 24 24 24 23 22 22 21 20 21 22 23
39 37 35 32 31 31 30 28 25 24 24 24 22 22 21 21 20 20 20 20 19 17 18 18 19 20 23 26 25 25 24 25 24 24 24 23 22 21 20 19 19 18 19 19
33 30 32 29 29 28 28 28 27 25 23 24 24 24 23 22 20 19 17 17 16 16 17 17 16 20 21 23 22 23 24 23 22 21 20 21 20 20 19 17 15 15 15 17
30 29 30 29 26 25 24 24 23 22 20 20 18 17 15 15 14 15 15 13 11 11 13 15 18 19 20 21 22 21 20 21 21 20 19 16 17 18 17 16 15 13 12 13
28 26 26 25 24 22 21 20 19 19 18 17 16 14 13 12 8 8 7 7 5 7 8 13 20 17 19 21 21 20 18 15 17 17 17 13 13 14 12 12 12 10 9 9
22 22 22 21 21 20 19 19 19 18 17 16 14 12 10 8 4 6 6 6 6 8 13 15 16 18 19 19 18 18 16 15 15 15 13 11 7 6 6 6 8 7 7 8
18 18 17 17 16 17 16 15 15 13 12 11 9 5 4 3 6 3 7 8 9 13 13 13 13 13 17 17 16 12 11 11 10 8 5 7 4 3 2 1 0 -1 1 2
18 18 17 17 17 16 15 13 13 13 12 11 8 8 7 9 5 8 5 9 12 7 10 10 10 8 11 11 13 8 10 8 6 5 4 1 -1 -3 -8 -5 2 2 -4 -6
19 19 18 16 16 16 16 15 15 15 13 11 9 9 11 13 13 7 4 12 12 6 10 3 2 6 4 6 5 2 1 1 5 5 -3 -5 -7 -7 -2 -6 -9 0 -7 -9
20 20 19 19 19 19 17 18 19 17 12 14 10 11 16 10 9 13 10 4 3 1 -3 -3 2 4 2 -2 -2 -1 2 -7 -7 -6 -4 -4 -8 -9 -4 -9 -10 -11 -12 -8
22 23 23 22 22 20 21 21 20 19 19 19 18 17 16 15 5 4 2 2 7 8 1 -1 1 3 2 -5 1 -7 -7 -1 -5 -8 -10 -3 -3 -11 -3 -9 -13 -12 -6 -6
24 22 22 23 20 19 19 21 18 17 16 11 7 3 4 8 9 11 7 4 7 4 4 -0 -3 -7 -6 -5 -7 -4 -6 -2 -5 -9 -10 -10 -8 -9 -7 -10 -13 -12 -12 -14
21 19 20 18 18 17 15 16 15 11 5 6 6 2 8 6 2 4 5 3 -1 3 -3 -3 0 2 -3 -7 -4 -4 -5 -5 -5 -6 -9 -9 -4 -10 -9 -10 -14 -14 -14 -11

GFSNGP_sfc_temp_075.txt.gz
Temp
36 38 39 39 39 42 37 37 34 39 41 47 46 47 49 51 52 49 46 46 46 45 45 47 49 50 51 52 53 54 57 56 55 56 56 56 56 57 58 58 60 61 61 60
31 38 38 36 40 42 43 42 40 39 39 50 51 51 49 49 48 46 44 43 43 43 44 44 45 46 47 48 49 51 50 50 51 52 55 57 57 57 57 58 59 59 59 59
25 32 32 29 37 40 43 45 44 37 45 49 48 48 47 46 45 43 42 41 40 40 40 41 43 44 43 45 47 46 46 47 47 48 48 49 52 54 56 57 59 59 59 59
25 29 20 39 48 48 45 47 48 48 49 49 44 43 44 45 43 41 40 39 38 38 38 38 41 43 42 42 41 41 41 42 43 44 45 46 47 47 47 48 50 56 58 59
23 23 32 38 45 43 41 41 47 47 46 43 42 42 38 42 42 39 38 38 37 37 37 38 40 40 39 38 38 37 37 38 39 40 41 41 41 41 43 44 43 42 38 38
26 21 19 36 46 52 50 36 48 48 44 43 46 36 35 39 40 39 38 38 36 36 36 36 37 39 37 35 35 33 34 35 37 38 37 37 38 38 39 39 36 35 33 33
24 23 28 42 47 50 32 36 47 49 46 46 41 40 36 38 37 38 38 37 37 35 33 34 36 37 35 33 31 32 34 34 34 35 35 35 36 36 36 35 34 32 31 31
25 25 22 44 44 38 42 44 44 45 43 37 37 37 37 36 36 36 34 35 35 33 32 33 34 36 33 31 32 33 32 32 32 32 33 34 33 34 34 34 32 31 31 30
31 30 39 41 42 44 45 42 41 40 39 38 36 35 33 32 32 32 32 32 33 32 31 32 32 33 32 32 32 31 30 30 30 31 32 32 31 30 30 31 31 30 30 28
34 37 37 39 40 41 43 41 41 41 39 37 34 33 32 32 31 30 31 30 32 31 29 28 30 30 32 34 32 30 28 28 29 29 29 30 31 31 29 29 28 28 28 28
36 37 38 37 38 36 36 39 38 37 37 35 33 31 31 30 29 28 27 28 28 28 27 26 28 28 29 32 32 29 29 28 27 27 27 27 27 27 27 28 29 27 27 27
31 37 37 34 35 35 33 32 34 33 31 32 30 28 29 26 27 25 24 25 25 26 26 26 26 25 25 27 30 27 26 25 24 24 23 23 24 24 29 29 30 30 30 28
34 35 33 33 34 34 32 31 32 30 30 27 28 28 26 24 24 24 23 23 23 23 23 24 24 24 23 22 25 25 25 21 20 19 19 18 18 18 16 21 26 27 27 27
36 37 31 33 28 32 31 30 30 29 29 28 27 26 25 23 23 21 20 21 21 21 21 21 21 20 22 21 21 24 23 22 20 18 17 17 17 17 17 16 14 15 21 23
34 35 32 31 31 30 30 29 27 25 24 23 24 23 23 20 18 18 20 21 21 19 18 19 18 17 19 20 19 17 19 19 18 17 17 16 16 15 15 14 13 12 13 14
34 32 32 29 28 28 27 26 22 20 19 17 17 18 18 18 17 17 17 18 15 12 13 11 14 12 15 15 15 15 15 16 15 16 16 16 15 14 13 12 11 10 9 9
30 28 29 28 27 27 26 26 24 23 22 21 20 21 19 18 16 14 12 12 10 8 8 8 7 10 13 12 12 12 14 14 13 14 15 14 13 12 12 10 9 8 7 5
28 27 27 27 25 24 23 24 22 21 18 18 16 13 11 11 8 6 3 2 4 6 6 6 8 11 12 13 14 14 14 14 14 12 12 10 11 11 9 7 7 6 4 4
24 23 24 23 23 21 20 18 17 16 15 14 12 8 6 3 1 -3 -3 2 1 3 5 6 17 13 13 16 14 13 11 9 11 10 10 5 5 7 4 2 1 -0 1 2
19 19 19 18 18 17 14 14 14 12 12 9 7 6 3 -3 -4 -1 1 -1 -1 4 9 10 12 13 13 11 10 10 8 6 10 5 3 2 -3 -5 -3 -1 -1 -5 -8 -6
14 15 14 13 12 13 13 13 13 11 10 10 9 3 -0 -4 -5 -4 2 4 5 8 10 10 10 11 12 9 8 2 2 0 -2 -3 -7 -11 -9 -8 -11 -15 -14 -15 -13 -13
14 13 12 13 13 12 12 12 11 8 6 2 -3 -4 -1 4 0 2 -2 5 8 3 7 7 8 -0 5 5 5 -1 2 0 -2 -4 -9 -13 -15 -17 -17 -17 -16 -17 -18 -18
15 15 14 13 13 13 12 12 10 10 7 6 6 5 7 10 9 3 2 9 9 3 8 2 -0 -2 -4 -6 -8 -11 -10 -10 -11 -12 -13 -16 -17 -18 -16 -15 -17 -19 -19 -16
16 16 15 16 16 16 14 15 16 14 8 12 8 5 11 4 1 10 9 3 -2 -6 -4 -7 -5 -4 -8 -12 -13 -14 -15 -16 -16 -18 -13 -13 -17 -17 -18 -20 -17 -20 -20 -16
19 19 18 18 18 17 18 18 16 16 15 15 15 14 14 12 3 3 -2 -1 1 -0 -4 -8 -5 -8 -14 -15 -15 -15 -15 -15 -16 -18 -17 -17 -16 -16 -18 -20 -20 -19 -20 -21
22 21 20 21 19 18 17 18 14 13 12 7 7 -3 -4 -1 3 2 -2 -3 0 1 -4 -9 -12 -14 -14 -12 -14 -15 -14 -8 -11 -14 -17 -16 -18 -16 -16 -16 -18 -18 -19 -20
18 16 16 14 13 13 12 14 11 9 9 9 7 2 0 -6 -6 -2 -4 -6 -6 -6 -10 -12 -13 -8 -9 -11 -11 -11 -12 -8 -6 -6 -11 -15 -19 -18 -15 -12 -14 -15 -18 -22

GFSNGP_sfc_temp_081.txt.gz
Temp
38 39 39 38 39 40 38 39 33 40 41 47 49 50 48 45 43 41 40 39 40 40 41 43 44 46 48 49 51 55 53 52 51 52 57 58 59 61 62 61 61 61 61 62
33 38 38 36 40 40 40 41 41 42 41 52 53 54 48 44 42 39 38 38 38 39 39 39 40 42 44 44 46 47 46 46 48 48 49 50 51 50 52 53 52 57 58 58
30 36 36 33 38 40 41 44 43 37 45 53 48 49 46 43 41 37 35 36 36 36 37 38 38 39 38 40 43 42 43 43 44 45 45 46 47 47 46 44 44 44 43 46
30 32 23 39 47 46 42 45 48 48 48 48 42 40 41 42 39 37 35 35 35 36 37 37 39 39 38 39 38 38 38 39 41 42 42 43 43 42 41 40 38 38 38 39
27 28 35 39 42 40 39 41 46 45 44 42 40 39 34 37 37 35 34 33 35 36 37 38 38 38 38 38 37 37 35 37 39 40 40 40 39 38 38 37 36 35 35 34
29 24 22 37 42 46 46 36 42 43 44 40 41 35 31 35 35 33 33 33 33 33 36 36 37 38 36 35 34 33 34 35 37 38 38 37 37 36 36 36 34 34 32 33
29 27 32 38 43 46 34 33 41 39 44 46 38 35 32 32 31 32 34 35 35 34 32 32 35 36 33 33 31 33 35 35 35 36 35 36 36 37 36 35 34 33 32 32
30 26 24 40 43 35 37 42 38 36 36 33 31 30 30 30 30 32 32 33 34 32 31 33 35 33 30 29 32 33 33 32 33 33 34 35 35 35 35 35 33 32 32 31
34 35 38 38 37 38 41 39 38 35 34 32 30 28 28 28 29 30 31 31 31 30 29 30 31 33 29 30 32 32 31 31 31 32 32 33 33 32 32 33 32 31 31 30
36 38 37 38 38 37 36 33 35 35 34 31 28 28 28 28 28 28 29 28 30 29 28 27 29 31 31 32 33 32 30 30 31 30 31 32 32 32 31 30 30 30 29 29
34 37 35 34 35 34 33 32 31 31 31 30 29 27 27 26 26 27 27 28 29 28 27 26 28 28 30 32 32 30 29 28 29 29 28 28 28 29 29 29 30 28 28 28
29 31 32 30 32 32 30 30 30 29 27 27 27 25 26 25 26 26 26 27 27 27 26 25 26 26 27 28 28 27 26 26 26 26 26 27 26 24 27 28 28 28 28 28
31 32 31 30 31 31 29 29 29 28 27 25 26 26 26 24 24 24 24 24 24 24 25 24 24 23 24 25 24 22 23 23 24 24 24 23 23 23 20 21 24 24 26 26
33 32 28 30 26 28 28 27 28 26 26 26 26 26 25 24 24 23 22 22 23 23 23 23 22 20 22 24 23 22 22 20 24 23 23 23 22 21 21 20 18 17 19 21
30 31 30 29 29 28 28 28 26 25 25 24 25 24 23 21 19 20 21 22 22 21 20 21 19 17 20 21 21 21 24 22 22 22 21 20 21 20 19 18 17 17 18 17
31 30 30 28 27 27 26 24 21 19 19 19 19 19 18 19 18 17 18 19 18 15 15 13 15 14 17 19 20 21 21 18 20 21 21 20 20 19 18 17 15 15 14 14
29 27 28 27 26 26 25 25 24 22 22 21 20 20 19 18 17 16 15 14 13 12 13 13 13 14 15 16 20 21 21 20 17 21 20 19 18 17 16 15 14 13 12 10
28 28 30 28 26 24 23 24 23 22 19 19 17 15 14 14 12 10 10 12 13 11 12 12 14 15 16 17 19 21 20 20 19 18 18 17 17 17 16 15 14 13 12 9
26 25 25 25 25 23 21 19 18 17 15 14 12 10 9 9 9 8 10 10 10 12 11 14 17 16 16 17 19 19 19 18 17 16 16 12 14 14 13 13 12 12 12 11
19 20 20 19 19 18 15 15 15 13 12 11 9 8 7 5 6 6 9 8 9 12 14 15 16 16 15 13 14 17 17 16 15 14 14 13 12 11 11 8 10 10 10 10
13 14 13 12 12 13 12 13 13 10 9 8 9 6 6 5 4 5 10 12 11 13 14 13 15 16 16 15 15 14 13 13 12 12 12 11 10 10 10 9 10 10 10 9
13 12 11 12 12 12 12 13 11 9 8 6 3 4 6 8 7 9 7 12 14 9 13 14 14 5 11 11 14 13 12 11 11 12 10 10 10 10 9 9 9 9 8 7
14 14 13 12 12 12 13 12 11 11 8 7 7 9 13 14 15 13 11 12 14 10 14 12 4 2 1 10 10 10 10 9 9 8 8 8 7 7 8 8 8 7 7 7
15 16 15 16 17 17 15 16 16 14 11 12 10 8 15 14 12 14 13 7 4 8 10 10 6 1 2 9 9 9 8 9 8 8 8 -2 7 6 6 6 6 8 5 2
18 18 18 19 19 19 18 18 18 17 17 17 16 16 15 15 14 13 12 12 8 9 12 1 1 -1 9 9 9 8 9 9 9 7 7 7 7 6 7 6 4 5 5 4
21 21 21 20 21 21 21 20 19 18 18 16 16 14 13 12 13 14 12 7 11 8 13 11 9 8 9 9 8 7 8 9 8 8 5 6 6 5 5 5 5 5 4 4
19 17 19 18 17 17 17 18 17 17 15 15 15 14 14 12 11 10 6 12 12 11 10 11 10 7 9 9 9 9 8 8 4 8 7 6 6 6 5 4 4 4 3 1

GFSNGP_sfc_temp_084.txt.gz
Temp
44 45 46 45 45 46 44 45 39 46 48 53 57 56 55 50 47 42 39 38 38 39 40 41 43 45 47 49 52 55 54 53 52 53 55 58 60 62 65 65 65 66 65 63
33 44 44 41 46 47 47 47 48 49 49 59 60 59 49 48 44 39 37 36 37 37 38 38 39 40 42 44 46 48 48 47 49 49 49 49 50 50 50 50 48 48 48 50
28 41 41 37 43 45 46 49 49 43 51 58 55 48 45 43 41 38 36 35 35 36 35 36 36 38 37 40 43 43 43 44 45 46 45 45 46 44 42 42 43 42 42 41
35 37 27 43 52 51 48 49 47 48 49 46 43 39 39 40 37 36 35 34 34 35 34 35 36 37 38 39 39 39 40 41 42 43 42 43 42 41 39 39 37 37 37 38
33 34 40 43 45 44 43 44 47 47 47 45 40 37 33 35 35 34 33 32 33 34 34 36 36 36 36 36 36 38 36 37 39 40 40 40 38 38 38 37 35 35 35 35
35 25 26 41 48 52 51 39 49 47 44 43 41 36 29 33 33 33 32 32 32 33 34 36 37 38 36 35 35 34 34 35 40 37 38 38 38 37 37 37 35 35 34 35
35 32 39 44 49 53 36 35 45 41 39 41 39 33 31 32 31 32 32 32 33 32 32 32 37 37 35 34 33 36 36 37 39 39 38 39 39 40 39 38 37 36 35 34
37 32 28 45 48 39 39 43 40 37 35 31 30 30 30 31 31 31 32 35 36 35 34 37 37 35 33 33 35 35 36 36 36 37 38 39 39 39 40 39 37 36 35 34
41 37 39 40 39 41 40 37 37 37 34 32 30 29 29 29 29 30 31 32 34 34 34 35 36 37 33 32 34 35 35 35 34 36 38 39 38 38 38 39 37 35 35 33
40 35 35 36 38 38 37 34 35 35 35 32 29 29 28 29 29 29 31 32 33 32 32 31 33 34 35 36 37 35 35 33 33 33 34 36 35 35 35 35 34 33 33 32
39 35 34 35 35 37 35 35 33 32 31 30 29 28 28 28 29 31 32 32 33 31 30 30 31 31 33 36 37 35 34 33 32 32 30 29 28 30 29 29 30 30 29 30
31 33 34 32 34 36 32 31 32 31 28 29 29 27 28 26 27 28 29 31 31 31 30 29 29 29 29 32 33 32 31 31 32 32 31 31 29 26 27 28 28 28 28 29
32 34 32 32 33 35 33 32 32 30 29 27 28 28 29 27 27 27 28 28 28 28 29 29 28 27 28 28 29 29 29 29 30 30 29 29 29 28 24 23 24 25 26 26
34 35 30 32 30 32 33 32 32 32 31 31 30 31 30 30 30 29 27 28 30 29 29 29 27 25 27 29 29 28 28 28 30 30 30 30 29 28 28 27 24 23 21 22
32 34 33 32 32 32 34 35 32 31 30 30 30 29 29 27 25 25 27 29 29 28 26 26 24 23 26 27 26 27 30 29 29 28 28 28 28 27 27 26 25 24 26 23
32 32 31 30 30 32 31 30 28 25 24 23 23 23 24 25 24 24 24 25 24 21 20 19 19 20 23 26 28 28 27 25 28 29 28 27 27 27 26 25 24 23 21 20
32 30 30 30 31 31 30 30 30 28 27 26 25 26 26 24 23 21 20 20 18 18 20 19 19 19 21 23 27 29 29 27 25 28 27 27 26 25 24 23 22 21 18 15
33 33 34 33 30 28 28 28 28 28 25 24 22 20 18 18 17 15 16 17 17 16 18 19 19 21 21 23 26 28 28 27 27 25 26 25 25 24 23 23 22 21 20 16
32 30 30 30 30 28 26 24 23 21 19 19 17 15 14 15 15 15 17 16 17 18 17 19 20 21 21 21 26 27 26 25 25 24 23 21 23 23 22 21 20 19 19 18
25 26 26 24 25 23 20 19 19 17 16 16 14 14 13 12 13 14 16 15 16 19 20 19 21 21 21 20 21 26 24 24 23 22 21 22 21 20 18 15 18 18 19 18
21 20 19 18 17 18 19 18 17 16 15 16 16 13 13 13 12 13 18 23 17 18 19 18 20 23 23 21 24 22 22 21 20 20 19 19 20 19 18 18 18 18 18 17
19 18 18 17 18 17 18 18 17 15 15 13 11 12 13 15 13 15 13 19 21 14 20 21 21 13 17 17 21 20 19 19 19 20 20 19 19 18 18 17 17 17 16 15
20 19 19 17 18 18 18 17 16 16 14 13 13 16 20 22 23 21 20 18 23 16 21 19 11 11 11 18 19 18 18 17 17 17 17 16 16 16 16 15 15 15 14 14
20 21 20 20 20 21 19 20 21 19 17 17 16 16 21 22 21 23 21 15 12 16 18 17 14 9 9 18 18 17 17 17 17 17 17 6 15 15 14 14 13 14 14 11
22 23 22 23 24 25 24 23 23 22 21 23 21 20 21 24 22 21 21 19 14 15 19 9 9 9 16 18 17 16 16 16 16 15 15 14 14 14 14 14 13 13 13 12
26 28 28 26 28 29 28 27 27 26 26 23 23 23 23 23 22 21 20 16 18 17 19 20 17 16 17 17 16 16 15 16 15 15 14 14 14 14 13 13 13 13 12 12
26 25 26 26 26 26 26 26 25 24 23 23 21 23 23 22 21 19 17 20 20 19 19 19 19 16 17 17 17 17 16 16 14 15 15 14 14 14 13 13 13 13 12 11